Time,TemperatureF,DewpointF,PressureIn,WindDirection,WindDirectionDegrees,WindSpeedMPH,WindSpeedGustMPH,Humidity,HourlyPrecipIn,Conditions,Clouds,dailyrainin,SoftwareType,DateUTC
2013-10-12 00:00:00,82.0,72.9,29.89,SE,135,3.5,3.5,74,0.00,,---,0.00,VWS V13.01,2013-10-12 04:00:00,
2013-10-12 00:01:00,82.0,72.9,29.89,SE,135,3.5,3.5,74,0.00,,---,0.00,VWS V13.01,2013-10-12 04:01:00,
2013-10-12 00:06:00,82.0,72.9,29.89,SE,135,1.5,1.5,74,0.00,,---,0.00,VWS V13.01,2013-10-12 04:06:00,
2013-10-12 00:11:00,82.0,72.9,29.89,SSE,158,2.0,2.0,74,0.00,,---,0.00,VWS V13.01,2013-10-12 04:11:00,
2013-10-12 00:16:00,82.0,72.9,29.88,SSE,158,0.0,0.0,74,0.00,,---,0.00,VWS V13.01,2013-10-12 04:16:00,
2013-10-12 00:21:00,81.8,72.7,29.88,SSE,158,0.0,0.0,74,0.00,,---,0.00,VWS V13.01,2013-10-12 04:21:00,
2013-10-12 00:22:00,81.8,72.7,29.88,SE,135,0.0,0.0,74,0.00,,---,0.00,VWS V13.01,2013-10-12 04:22:00,
2013-10-12 00:26:00,81.6,72.5,29.88,SE,135,1.7,1.7,74,0.00,,---,0.00,VWS V13.01,2013-10-12 04:26:00,
2013-10-12 00:27:00,81.6,72.5,29.88,SSE,158,0.0,0.0,74,0.00,,---,0.00,VWS V13.01,2013-10-12 04:27:00,
2013-10-12 00:31:00,81.6,72.5,29.88,SE,135,3.1,3.1,74,0.00,,---,0.00,VWS V13.01,2013-10-12 04:31:00,
2013-10-12 00:32:00,81.6,72.5,29.88,SE,135,3.5,3.5,74,0.00,,---,0.00,VWS V13.01,2013-10-12 04:32:00,
2013-10-12 00:36:00,81.6,72.5,29.88,SE,135,0.0,0.0,74,0.00,,---,0.00,VWS V13.01,2013-10-12 04:36:00,
2013-10-12 00:37:00,81.6,72.5,29.88,SSE,158,1.3,1.3,74,0.00,,---,0.00,VWS V13.01,2013-10-12 04:37:00,
2013-10-12 00:41:00,81.6,72.5,29.88,SSE,158,0.0,0.0,74,0.00,,---,0.00,VWS V13.01,2013-10-12 04:41:00,
2013-10-12 00:42:00,81.5,72.8,29.88,SSE,158,1.7,1.7,75,0.00,,---,0.00,VWS V13.01,2013-10-12 04:42:00,
2013-10-12 00:46:00,81.5,72.8,29.88,South,180,0.0,0.0,75,0.00,,---,0.00,VWS V13.01,2013-10-12 04:46:00,
2013-10-12 00:47:00,81.5,72.8,29.88,SSE,158,0.0,0.0,75,0.00,,---,0.00,VWS V13.01,2013-10-12 04:47:00,
2013-10-12 00:51:00,81.5,72.8,29.88,SSE,158,0.0,0.0,75,0.00,,---,0.00,VWS V13.01,2013-10-12 04:51:00,
2013-10-12 00:52:00,81.5,72.8,29.88,SSE,158,0.0,0.0,75,0.00,,---,0.00,VWS V13.01,2013-10-12 04:52:00,
2013-10-12 00:56:00,81.3,72.6,29.87,SE,135,0.0,0.0,75,0.00,,---,0.00,VWS V13.01,2013-10-12 04:56:00,
2013-10-12 00:57:00,81.3,72.6,29.87,SSE,158,0.0,0.0,75,0.00,,---,0.00,VWS V13.01,2013-10-12 04:57:00,
2013-10-12 00:58:00,81.3,72.6,29.87,SSE,158,0.0,0.0,75,0.00,,---,0.00,VWS V13.01,2013-10-12 04:58:00,
2013-10-12 01:01:00,81.3,72.6,29.87,SSE,158,0.0,0.0,75,0.00,,---,0.00,VWS V13.01,2013-10-12 05:01:00,
2013-10-12 01:02:00,81.3,72.6,29.87,SSE,158,2.9,2.9,75,0.00,,---,0.00,VWS V13.01,2013-10-12 05:02:00,
2013-10-12 01:03:00,81.3,72.6,29.87,SSE,158,0.0,0.0,75,0.00,,---,0.00,VWS V13.01,2013-10-12 05:03:00,
2013-10-12 01:06:00,81.3,72.6,29.87,SSW,202,2.6,2.6,75,0.00,,---,0.00,VWS V13.01,2013-10-12 05:06:00,
2013-10-12 01:07:00,81.3,72.6,29.87,SSE,158,0.0,0.0,75,0.00,,---,0.00,VWS V13.01,2013-10-12 05:07:00,
2013-10-12 01:08:00,81.3,72.6,29.87,SE,135,0.0,0.0,75,0.00,,---,0.00,VWS V13.01,2013-10-12 05:08:00,
2013-10-12 01:11:00,81.3,73.0,29.87,SSE,158,0.0,0.0,76,0.00,,---,0.00,VWS V13.01,2013-10-12 05:11:00,
2013-10-12 01:12:00,81.3,73.0,29.87,South,180,0.0,0.0,76,0.00,,---,0.00,VWS V13.01,2013-10-12 05:12:00,
2013-10-12 01:13:00,81.3,73.0,29.86,South,180,0.0,0.0,76,0.00,,---,0.00,VWS V13.01,2013-10-12 05:13:00,
2013-10-12 01:16:00,81.1,72.8,29.86,SE,135,0.0,0.0,76,0.00,,---,0.00,VWS V13.01,2013-10-12 05:16:00,
2013-10-12 01:17:00,81.3,73.0,29.86,SSE,158,0.0,0.0,76,0.00,,---,0.00,VWS V13.01,2013-10-12 05:17:00,
2013-10-12 01:18:00,81.1,72.8,29.86,SE,135,1.5,1.5,76,0.00,,---,0.00,VWS V13.01,2013-10-12 05:18:00,
2013-10-12 01:21:00,81.1,72.8,29.86,SE,135,0.0,0.0,76,0.00,,---,0.00,VWS V13.01,2013-10-12 05:21:00,
2013-10-12 01:22:00,81.1,72.8,29.87,SE,135,0.0,0.0,76,0.00,,---,0.00,VWS V13.01,2013-10-12 05:22:00,
2013-10-12 01:23:00,81.1,72.8,29.86,SSE,158,0.0,0.0,76,0.00,,---,0.00,VWS V13.01,2013-10-12 05:23:00,
2013-10-12 01:26:00,81.1,72.8,29.86,SSW,202,0.0,0.0,76,0.00,,---,0.00,VWS V13.01,2013-10-12 05:26:00,
2013-10-12 01:27:00,81.1,72.8,29.86,SSE,158,0.0,0.0,76,0.00,,---,0.00,VWS V13.01,2013-10-12 05:27:00,
2013-10-12 01:28:00,81.1,72.8,29.86,SSE,158,0.0,0.0,76,0.00,,---,0.00,VWS V13.01,2013-10-12 05:28:00,
2013-10-12 01:31:00,81.1,72.8,29.86,SE,135,0.0,0.0,76,0.00,,---,0.00,VWS V13.01,2013-10-12 05:31:00,
2013-10-12 01:32:00,81.1,72.8,29.86,SE,135,0.0,0.0,76,0.00,,---,0.00,VWS V13.01,2013-10-12 05:32:00,
2013-10-12 01:33:00,81.1,72.8,29.86,SSE,158,0.0,0.0,76,0.00,,---,0.00,VWS V13.01,2013-10-12 05:33:00,
2013-10-12 01:36:00,81.1,72.8,29.86,SSE,158,0.0,0.0,76,0.00,,---,0.00,VWS V13.01,2013-10-12 05:36:00,
2013-10-12 01:37:00,81.1,72.8,29.86,SSE,158,0.0,0.0,76,0.00,,---,0.00,VWS V13.01,2013-10-12 05:37:00,
2013-10-12 01:38:00,81.1,72.8,29.86,SE,135,0.0,0.0,76,0.00,,---,0.00,VWS V13.01,2013-10-12 05:38:00,
2013-10-12 01:41:00,81.1,72.8,29.86,SSE,158,0.0,0.0,76,0.00,,---,0.00,VWS V13.01,2013-10-12 05:41:00,
2013-10-12 01:42:00,81.1,72.8,29.86,SE,135,0.0,0.0,76,0.00,,---,0.00,VWS V13.01,2013-10-12 05:42:00,
2013-10-12 01:43:00,81.1,72.8,29.86,SSE,158,0.0,0.0,76,0.00,,---,0.00,VWS V13.01,2013-10-12 05:43:00,
2013-10-12 01:44:00,81.1,72.8,29.86,SE,135,2.4,2.4,76,0.00,,---,0.00,VWS V13.01,2013-10-12 05:44:00,
2013-10-12 01:46:00,81.1,72.8,29.86,SSE,158,0.0,0.0,76,0.00,,---,0.00,VWS V13.01,2013-10-12 05:46:00,
2013-10-12 01:47:00,81.1,72.8,29.86,SSE,158,0.0,0.0,76,0.00,,---,0.00,VWS V13.01,2013-10-12 05:47:00,
2013-10-12 01:48:00,81.1,72.8,29.86,SSE,158,0.0,0.0,76,0.00,,---,0.00,VWS V13.01,2013-10-12 05:48:00,
2013-10-12 01:49:00,81.1,73.2,29.86,SSE,158,0.0,0.0,77,0.00,,---,0.00,VWS V13.01,2013-10-12 05:49:00,
2013-10-12 01:51:00,81.1,73.2,29.86,SSE,158,0.0,0.0,77,0.00,,---,0.00,VWS V13.01,2013-10-12 05:51:00,
2013-10-12 01:52:00,81.1,73.2,29.86,SSE,158,0.0,0.0,77,0.00,,---,0.00,VWS V13.01,2013-10-12 05:52:00,
2013-10-12 01:53:00,81.1,73.2,29.86,SSE,158,0.0,0.0,77,0.00,,---,0.00,VWS V13.01,2013-10-12 05:53:00,
2013-10-12 01:54:00,80.9,73.0,29.86,SSE,158,0.0,0.0,77,0.00,,---,0.00,VWS V13.01,2013-10-12 05:54:00,
2013-10-12 01:56:00,80.9,73.0,29.86,South,180,0.0,0.0,77,0.00,,---,0.02,VWS V13.01,2013-10-12 05:56:00,
2013-10-12 01:57:00,80.9,73.0,29.86,South,180,0.0,0.0,77,0.00,,---,0.00,VWS V13.01,2013-10-12 05:57:00,
2013-10-12 01:58:00,80.9,73.0,29.86,South,180,0.0,0.0,77,0.00,,---,0.00,VWS V13.01,2013-10-12 05:58:00,
2013-10-12 01:59:00,80.9,73.0,29.86,South,180,0.0,0.0,77,0.00,,---,0.00,VWS V13.01,2013-10-12 05:59:00,
2013-10-12 02:01:00,80.9,73.0,29.86,SE,135,0.0,0.0,77,0.00,,---,0.00,VWS V13.01,2013-10-12 06:01:00,
2013-10-12 02:02:00,80.9,73.0,29.86,SE,135,0.0,0.0,77,0.00,,---,0.00,VWS V13.01,2013-10-12 06:02:00,
2013-10-12 02:03:00,80.9,73.0,29.86,SSE,158,0.0,0.0,77,0.00,,---,0.00,VWS V13.01,2013-10-12 06:03:00,
2013-10-12 02:04:00,80.9,73.0,29.86,SE,135,0.0,0.0,77,0.00,,---,0.00,VWS V13.01,2013-10-12 06:04:00,
2013-10-12 02:06:00,80.7,72.8,29.85,SE,135,0.0,0.0,77,0.00,,---,0.00,VWS V13.01,2013-10-12 06:06:00,
2013-10-12 02:07:00,80.7,72.8,29.85,SE,135,0.0,0.0,77,0.00,,---,0.00,VWS V13.01,2013-10-12 06:07:00,
2013-10-12 02:08:00,80.9,73.0,29.85,SE,135,0.0,0.0,77,0.00,,---,0.00,VWS V13.01,2013-10-12 06:08:00,
2013-10-12 02:09:00,80.7,72.8,29.85,SE,135,0.0,0.0,77,0.00,,---,0.00,VWS V13.01,2013-10-12 06:09:00,
2013-10-12 02:10:00,80.7,72.8,29.86,SE,135,0.0,0.0,77,0.00,,---,0.00,VWS V13.01,2013-10-12 06:10:00,
2013-10-12 02:11:00,80.7,72.8,29.86,SE,135,0.0,0.0,77,0.00,,---,0.00,VWS V13.01,2013-10-12 06:11:00,
2013-10-12 02:12:00,80.7,72.8,29.86,SE,135,0.0,0.0,77,0.00,,---,0.00,VWS V13.01,2013-10-12 06:12:00,
2013-10-12 02:13:00,80.7,72.8,29.85,SE,135,0.0,0.0,77,0.00,,---,0.00,VWS V13.01,2013-10-12 06:13:00,
2013-10-12 02:14:00,80.7,72.8,29.85,SE,135,0.0,0.0,77,0.00,,---,0.00,VWS V13.01,2013-10-12 06:14:00,
2013-10-12 02:15:00,80.7,72.8,29.85,SE,135,0.0,0.0,77,0.00,,---,0.00,VWS V13.01,2013-10-12 06:15:00,
2013-10-12 02:16:00,80.7,72.8,29.85,SE,135,0.0,0.0,77,0.00,,---,0.00,VWS V13.01,2013-10-12 06:16:00,
2013-10-12 02:17:00,80.7,72.8,29.85,SE,135,0.0,0.0,77,0.00,,---,0.00,VWS V13.01,2013-10-12 06:17:00,
2013-10-12 02:18:00,80.7,72.8,29.85,SE,135,0.0,0.0,77,0.00,,---,0.00,VWS V13.01,2013-10-12 06:18:00,
2013-10-12 02:19:00,80.7,72.8,29.86,SE,135,0.0,0.0,77,0.00,,---,0.00,VWS V13.01,2013-10-12 06:19:00,
2013-10-12 02:20:00,80.7,72.8,29.86,SE,135,0.0,0.0,77,0.00,,---,0.00,VWS V13.01,2013-10-12 06:20:00,
2013-10-12 02:21:00,80.7,72.8,29.85,SE,135,0.0,0.0,77,0.00,,---,0.00,VWS V13.01,2013-10-12 06:21:00,
2013-10-12 02:22:00,80.7,72.8,29.85,SE,135,0.0,0.0,77,0.00,,---,0.00,VWS V13.01,2013-10-12 06:22:00,
2013-10-12 02:23:00,80.7,72.8,29.85,SE,135,0.0,0.0,77,0.00,,---,0.00,VWS V13.01,2013-10-12 06:23:00,
2013-10-12 02:24:00,80.7,72.8,29.85,SE,135,0.0,0.0,77,0.00,,---,0.00,VWS V13.01,2013-10-12 06:24:00,
2013-10-12 02:25:00,80.7,72.8,29.85,SE,135,0.0,0.0,77,0.00,,---,0.00,VWS V13.01,2013-10-12 06:25:00,
2013-10-12 02:26:00,80.6,72.7,29.85,SE,135,0.0,0.0,77,0.00,,---,0.00,VWS V13.01,2013-10-12 06:26:00,
2013-10-12 02:27:00,80.6,72.7,29.85,SE,135,0.0,0.0,77,0.00,,---,0.00,VWS V13.01,2013-10-12 06:27:00,
2013-10-12 02:28:00,80.7,72.8,29.85,SE,135,0.0,0.0,77,0.00,,---,0.00,VWS V13.01,2013-10-12 06:28:00,
2013-10-12 02:29:00,80.6,72.7,29.85,SE,135,0.0,0.0,77,0.00,,---,0.00,VWS V13.01,2013-10-12 06:29:00,
2013-10-12 02:30:00,80.6,72.7,29.85,SE,135,0.0,0.0,77,0.00,,---,0.00,VWS V13.01,2013-10-12 06:30:00,
2013-10-12 02:31:00,80.6,72.7,29.85,SSE,158,0.0,0.0,77,0.00,,---,0.00,VWS V13.01,2013-10-12 06:31:00,
2013-10-12 02:32:00,80.6,72.7,29.85,SSE,158,0.0,0.0,77,0.00,,---,0.00,VWS V13.01,2013-10-12 06:32:00,
2013-10-12 02:33:00,80.6,72.7,29.85,SSE,158,0.0,0.0,77,0.00,,---,0.00,VWS V13.01,2013-10-12 06:33:00,
2013-10-12 02:34:00,80.6,72.7,29.85,SSE,158,0.0,0.0,77,0.00,,---,0.00,VWS V13.01,2013-10-12 06:34:00,
2013-10-12 02:35:00,80.6,72.7,29.85,SSE,158,0.0,0.0,77,0.00,,---,0.00,VWS V13.01,2013-10-12 06:35:00,
2013-10-12 02:37:00,80.6,72.7,29.85,SE,135,0.0,0.0,77,0.00,,---,0.00,VWS V13.01,2013-10-12 06:37:00,
2013-10-12 02:38:00,80.6,73.1,29.85,SE,135,0.0,0.0,78,0.00,,---,0.00,VWS V13.01,2013-10-12 06:38:00,
2013-10-12 02:39:00,80.4,72.9,29.85,SE,135,0.0,0.0,78,0.00,,---,0.00,VWS V13.01,2013-10-12 06:39:00,
2013-10-12 02:40:00,80.6,73.1,29.85,SE,135,0.0,0.0,78,0.00,,---,0.00,VWS V13.01,2013-10-12 06:40:00,
2013-10-12 02:42:00,80.4,72.9,29.85,SE,135,0.0,0.0,78,0.00,,---,0.00,VWS V13.01,2013-10-12 06:42:00,
2013-10-12 02:43:00,80.4,72.9,29.85,SE,135,0.0,0.0,78,0.00,,---,0.00,VWS V13.01,2013-10-12 06:43:00,
2013-10-12 02:44:00,80.4,72.9,29.85,SSE,158,0.0,0.0,78,0.00,,---,0.00,VWS V13.01,2013-10-12 06:44:00,
2013-10-12 02:45:00,80.4,72.9,29.85,SSE,158,0.0,0.0,78,0.00,,---,0.00,VWS V13.01,2013-10-12 06:45:00,
2013-10-12 02:47:00,80.4,72.9,29.85,ESE,112,0.0,0.0,78,0.00,,---,0.00,VWS V13.01,2013-10-12 06:47:00,
2013-10-12 02:48:00,80.4,72.9,29.85,SE,135,0.0,0.0,78,0.00,,---,0.00,VWS V13.01,2013-10-12 06:48:00,
2013-10-12 02:49:00,80.4,72.9,29.85,SE,135,0.0,0.0,78,0.00,,---,0.00,VWS V13.01,2013-10-12 06:49:00,
2013-10-12 02:50:00,80.4,72.9,29.85,ESE,112,0.0,0.0,78,0.00,,---,0.00,VWS V13.01,2013-10-12 06:50:00,
2013-10-12 02:52:00,80.4,72.9,29.85,South,180,0.0,0.0,78,0.00,,---,0.00,VWS V13.01,2013-10-12 06:52:00,
2013-10-12 02:53:00,80.4,72.9,29.85,South,180,0.0,0.0,78,0.00,,---,0.00,VWS V13.01,2013-10-12 06:53:00,
2013-10-12 02:54:00,80.4,72.9,29.85,South,180,0.0,0.0,78,0.00,,---,0.00,VWS V13.01,2013-10-12 06:54:00,
2013-10-12 02:55:00,80.4,72.9,29.85,South,180,0.0,0.0,78,0.00,,---,0.00,VWS V13.01,2013-10-12 06:55:00,
2013-10-12 02:56:00,80.4,72.9,29.85,South,180,0.0,0.0,78,0.00,,---,0.00,VWS V13.01,2013-10-12 06:56:00,
2013-10-12 02:57:00,80.4,72.9,29.85,South,180,0.0,0.0,78,0.00,,---,0.00,VWS V13.01,2013-10-12 06:57:00,
2013-10-12 02:58:00,80.4,72.9,29.85,South,180,0.0,0.0,78,0.00,,---,0.00,VWS V13.01,2013-10-12 06:58:00,
2013-10-12 02:59:00,80.4,73.3,29.85,South,180,0.0,0.0,79,0.00,,---,0.00,VWS V13.01,2013-10-12 06:59:00,
2013-10-12 03:01:00,80.4,73.3,29.85,SSW,202,0.0,0.0,79,0.00,,---,0.00,VWS V13.01,2013-10-12 07:01:00,
2013-10-12 03:02:00,80.4,73.3,29.85,SSE,158,0.0,0.0,79,0.00,,---,0.00,VWS V13.01,2013-10-12 07:02:00,
2013-10-12 03:03:00,80.4,73.3,29.85,SSW,202,0.0,0.0,79,0.00,,---,0.00,VWS V13.01,2013-10-12 07:03:00,
2013-10-12 03:04:00,80.4,73.3,29.85,South,180,0.0,0.0,79,0.00,,---,0.00,VWS V13.01,2013-10-12 07:04:00,
2013-10-12 03:06:00,80.2,73.1,29.85,South,180,0.0,0.0,79,0.00,,---,0.00,VWS V13.01,2013-10-12 07:06:00,
2013-10-12 03:07:00,80.2,73.1,29.85,South,180,0.0,0.0,79,0.00,,---,0.00,VWS V13.01,2013-10-12 07:07:00,
2013-10-12 03:08:00,80.2,73.1,29.85,South,180,0.0,0.0,79,0.00,,---,0.00,VWS V13.01,2013-10-12 07:08:00,
2013-10-12 03:09:00,80.2,73.1,29.85,SSW,202,0.0,0.0,79,0.00,,---,0.00,VWS V13.01,2013-10-12 07:09:00,
2013-10-12 03:11:00,80.2,73.1,29.85,South,180,0.0,0.0,79,0.00,,---,0.00,VWS V13.01,2013-10-12 07:11:00,
2013-10-12 03:12:00,80.2,73.1,29.85,SSW,202,0.0,0.0,79,0.00,,---,0.00,VWS V13.01,2013-10-12 07:12:00,
2013-10-12 03:13:00,80.2,73.1,29.85,SSW,202,0.0,0.0,79,0.00,,---,0.00,VWS V13.01,2013-10-12 07:13:00,
2013-10-12 03:14:00,80.2,73.1,29.85,SSW,202,0.0,0.0,79,0.00,,---,0.00,VWS V13.01,2013-10-12 07:14:00,
2013-10-12 03:16:00,80.2,73.1,29.84,SSW,202,0.0,0.0,79,0.00,,---,0.00,VWS V13.01,2013-10-12 07:16:00,
2013-10-12 03:17:00,80.2,73.1,29.85,South,180,0.0,0.0,79,0.00,,---,0.00,VWS V13.01,2013-10-12 07:17:00,
2013-10-12 03:18:00,80.2,73.1,29.84,South,180,0.0,0.0,79,0.00,,---,0.00,VWS V13.01,2013-10-12 07:18:00,
2013-10-12 03:19:00,80.2,73.1,29.85,South,180,0.0,0.0,79,0.00,,---,0.00,VWS V13.01,2013-10-12 07:19:00,
2013-10-12 03:21:00,80.0,72.9,29.85,South,180,0.0,0.0,79,0.00,,---,0.00,VWS V13.01,2013-10-12 07:21:00,
2013-10-12 03:22:00,80.0,72.9,29.85,South,180,0.0,0.0,79,0.00,,---,0.00,VWS V13.01,2013-10-12 07:22:00,
2013-10-12 03:23:00,80.0,72.9,29.85,South,180,0.0,0.0,79,0.00,,---,0.00,VWS V13.01,2013-10-12 07:23:00,
2013-10-12 03:24:00,79.8,72.7,29.85,South,180,0.0,0.0,79,0.00,,---,0.00,VWS V13.01,2013-10-12 07:24:00,
2013-10-12 03:26:00,79.8,72.7,29.85,South,180,0.0,0.0,79,0.00,,---,0.00,VWS V13.01,2013-10-12 07:26:00,
2013-10-12 03:27:00,79.8,72.7,29.85,South,180,0.0,0.0,79,0.00,,---,0.00,VWS V13.01,2013-10-12 07:27:00,
2013-10-12 03:28:00,79.8,72.7,29.84,South,180,0.0,0.0,79,0.00,,---,0.00,VWS V13.01,2013-10-12 07:28:00,
2013-10-12 03:29:00,79.8,72.7,29.84,South,180,0.0,0.0,79,0.00,,---,0.00,VWS V13.01,2013-10-12 07:29:00,
2013-10-12 03:32:00,79.7,72.6,29.84,South,180,0.0,0.0,79,0.00,,---,0.00,VWS V13.01,2013-10-12 07:32:00,
2013-10-12 03:33:00,79.7,72.6,29.84,SSE,158,1.1,1.1,79,0.00,,---,0.00,VWS V13.01,2013-10-12 07:33:00,
2013-10-12 03:34:00,79.7,72.6,29.84,SSE,158,1.1,1.1,79,0.00,,---,0.00,VWS V13.01,2013-10-12 07:34:00,
2013-10-12 03:37:00,79.7,72.6,29.84,SSE,158,0.0,0.0,79,0.00,,---,0.00,VWS V13.01,2013-10-12 07:37:00,
2013-10-12 03:38:00,79.7,72.6,29.85,South,180,0.0,0.0,79,0.00,,---,0.00,VWS V13.01,2013-10-12 07:38:00,
2013-10-12 03:39:00,79.7,72.6,29.85,South,180,0.0,0.0,79,0.00,,---,0.00,VWS V13.01,2013-10-12 07:39:00,
2013-10-12 03:42:00,79.7,72.6,29.84,South,180,0.0,0.0,79,0.00,,---,0.00,VWS V13.01,2013-10-12 07:42:00,
2013-10-12 03:43:00,79.7,73.0,29.84,SSE,158,0.0,0.0,80,0.00,,---,0.00,VWS V13.01,2013-10-12 07:43:00,
2013-10-12 03:44:00,79.7,73.0,29.84,SSE,158,0.0,0.0,80,0.00,,---,0.00,VWS V13.01,2013-10-12 07:44:00,
2013-10-12 03:45:00,79.7,73.0,29.84,South,180,1.1,1.1,80,0.00,,---,0.00,VWS V13.01,2013-10-12 07:45:00,
2013-10-12 03:47:00,79.7,73.0,29.84,SSE,158,3.1,3.1,80,0.00,,---,0.00,VWS V13.01,2013-10-12 07:47:00,
2013-10-12 03:48:00,79.7,73.0,29.85,South,180,0.0,0.0,80,0.00,,---,0.00,VWS V13.01,2013-10-12 07:48:00,
2013-10-12 03:49:00,79.7,73.0,29.85,South,180,0.0,0.0,80,0.00,,---,0.00,VWS V13.01,2013-10-12 07:49:00,
2013-10-12 03:50:00,79.7,73.0,29.85,SE,135,0.0,0.0,80,0.00,,---,0.00,VWS V13.01,2013-10-12 07:50:00,
2013-10-12 03:52:00,79.7,73.0,29.85,South,180,2.2,2.2,80,0.00,,---,0.00,VWS V13.01,2013-10-12 07:52:00,
2013-10-12 03:53:00,79.7,73.0,29.85,SE,135,0.0,0.0,80,0.00,,---,0.00,VWS V13.01,2013-10-12 07:53:00,
2013-10-12 03:54:00,79.7,73.0,29.85,SE,135,0.0,0.0,80,0.00,,---,0.00,VWS V13.01,2013-10-12 07:54:00,
2013-10-12 03:55:00,79.7,73.0,29.84,SSE,158,0.0,0.0,80,0.00,,---,0.00,VWS V13.01,2013-10-12 07:55:00,
2013-10-12 03:57:00,79.7,73.0,29.85,South,180,0.0,0.0,80,0.00,,---,0.00,VWS V13.01,2013-10-12 07:57:00,
2013-10-12 03:58:00,79.7,73.0,29.85,SE,135,0.0,0.0,80,0.00,,---,0.00,VWS V13.01,2013-10-12 07:58:00,
2013-10-12 03:59:00,79.7,73.0,29.85,SE,135,0.0,0.0,80,0.00,,---,0.00,VWS V13.01,2013-10-12 07:59:00,
2013-10-12 04:00:00,79.7,73.0,29.85,SE,135,0.0,0.0,80,0.00,,---,0.00,VWS V13.01,2013-10-12 08:00:00,
2013-10-12 04:02:00,79.7,73.0,29.85,SE,135,0.0,0.0,80,0.00,,---,0.00,VWS V13.01,2013-10-12 08:02:00,
2013-10-12 04:04:00,79.7,73.0,29.85,SE,135,0.0,0.0,80,0.00,,---,0.00,VWS V13.01,2013-10-12 08:04:00,
2013-10-12 04:05:00,79.7,73.0,29.85,SE,135,0.0,0.0,80,0.00,,---,0.00,VWS V13.01,2013-10-12 08:05:00,
2013-10-12 04:07:00,79.7,73.0,29.85,SSE,158,0.0,0.0,80,0.00,,---,0.00,VWS V13.01,2013-10-12 08:07:00,
2013-10-12 04:08:00,79.7,73.0,29.85,SSE,158,0.0,0.0,80,0.00,,---,0.00,VWS V13.01,2013-10-12 08:08:00,
2013-10-12 04:09:00,79.7,73.0,29.85,SSE,158,0.0,0.0,80,0.00,,---,0.00,VWS V13.01,2013-10-12 08:09:00,
2013-10-12 04:10:00,79.7,73.0,29.85,SSE,158,0.0,0.0,80,0.00,,---,0.00,VWS V13.01,2013-10-12 08:10:00,
2013-10-12 04:12:00,79.7,73.0,29.85,SSE,158,0.0,0.0,80,0.00,,---,0.00,VWS V13.01,2013-10-12 08:12:00,
2013-10-12 04:13:00,79.7,73.0,29.85,SSE,158,0.0,0.0,80,0.00,,---,0.00,VWS V13.01,2013-10-12 08:13:00,
2013-10-12 04:14:00,79.5,72.8,29.85,SSE,158,0.0,0.0,80,0.00,,---,0.00,VWS V13.01,2013-10-12 08:14:00,
2013-10-12 04:16:00,79.5,72.8,29.85,SSE,158,0.0,0.0,80,0.00,,---,0.00,VWS V13.01,2013-10-12 08:16:00,
2013-10-12 04:17:00,79.5,72.8,29.85,SSE,158,0.0,0.0,80,0.00,,---,0.00,VWS V13.01,2013-10-12 08:17:00,
2013-10-12 04:18:00,79.5,72.8,29.85,SSE,158,0.0,0.0,80,0.00,,---,0.00,VWS V13.01,2013-10-12 08:18:00,
2013-10-12 04:19:00,79.5,72.8,29.85,SSE,158,0.0,0.0,80,0.00,,---,0.00,VWS V13.01,2013-10-12 08:19:00,
2013-10-12 04:21:00,79.5,72.8,29.85,SSE,158,0.0,0.0,80,0.00,,---,0.00,VWS V13.01,2013-10-12 08:21:00,
2013-10-12 04:22:00,79.5,72.8,29.85,SE,135,0.0,0.0,80,0.00,,---,0.00,VWS V13.01,2013-10-12 08:22:00,
2013-10-12 04:23:00,79.5,72.8,29.85,SE,135,0.0,0.0,80,0.00,,---,0.00,VWS V13.01,2013-10-12 08:23:00,
2013-10-12 04:24:00,79.5,72.8,29.85,SE,135,0.0,0.0,80,0.00,,---,0.00,VWS V13.01,2013-10-12 08:24:00,
2013-10-12 04:26:00,79.5,72.8,29.85,SSE,158,0.0,0.0,80,0.00,,---,0.00,VWS V13.01,2013-10-12 08:26:00,
2013-10-12 04:27:00,79.5,72.8,29.85,SE,135,0.0,0.0,80,0.00,,---,0.00,VWS V13.01,2013-10-12 08:27:00,
2013-10-12 04:28:00,79.5,72.8,29.85,SE,135,0.0,0.0,80,0.00,,---,0.00,VWS V13.01,2013-10-12 08:28:00,
2013-10-12 04:29:00,79.5,72.8,29.85,SE,135,0.0,0.0,80,0.00,,---,0.00,VWS V13.01,2013-10-12 08:29:00,
2013-10-12 04:31:00,79.5,72.8,29.85,SE,135,0.0,0.0,80,0.00,,---,0.00,VWS V13.01,2013-10-12 08:31:00,
2013-10-12 04:33:00,79.5,72.8,29.85,SE,135,0.0,0.0,80,0.00,,---,0.00,VWS V13.01,2013-10-12 08:33:00,
2013-10-12 04:34:00,79.5,72.8,29.85,SE,135,0.0,0.0,80,0.00,,---,0.00,VWS V13.01,2013-10-12 08:34:00,
2013-10-12 04:36:00,79.5,72.8,29.85,SE,135,0.0,0.0,80,0.00,,---,0.00,VWS V13.01,2013-10-12 08:36:00,
2013-10-12 04:38:00,79.5,72.8,29.85,SE,135,0.0,0.0,80,0.00,,---,0.00,VWS V13.01,2013-10-12 08:38:00,
2013-10-12 04:39:00,79.5,72.8,29.85,SE,135,0.0,0.0,80,0.00,,---,0.00,VWS V13.01,2013-10-12 08:39:00,
2013-10-12 04:41:00,79.5,72.8,29.86,SSE,158,0.0,0.0,80,0.00,,---,0.00,VWS V13.01,2013-10-12 08:41:00,
2013-10-12 04:43:00,79.5,72.8,29.86,SE,135,0.0,0.0,80,0.00,,---,0.00,VWS V13.01,2013-10-12 08:43:00,
2013-10-12 04:44:00,79.5,72.8,29.86,SE,135,0.0,0.0,80,0.00,,---,0.00,VWS V13.01,2013-10-12 08:44:00,
2013-10-12 04:47:00,79.5,72.8,29.86,SSE,158,0.0,0.0,80,0.00,,---,0.00,VWS V13.01,2013-10-12 08:47:00,
2013-10-12 04:48:00,79.3,72.6,29.86,SSE,158,0.0,0.0,80,0.00,,---,0.00,VWS V13.01,2013-10-12 08:48:00,
2013-10-12 04:49:00,79.3,72.6,29.86,SSE,158,0.0,0.0,80,0.00,,---,0.00,VWS V13.01,2013-10-12 08:49:00,
2013-10-12 04:52:00,79.5,72.8,29.86,SSE,158,0.0,0.0,80,0.00,,---,0.00,VWS V13.01,2013-10-12 08:52:00,
2013-10-12 04:53:00,79.5,72.8,29.86,SSE,158,0.0,0.0,80,0.00,,---,0.00,VWS V13.01,2013-10-12 08:53:00,
2013-10-12 04:54:00,79.3,72.6,29.85,SSE,158,0.0,0.0,80,0.00,,---,0.00,VWS V13.01,2013-10-12 08:54:00,
2013-10-12 04:57:00,79.3,72.6,29.86,SSE,158,0.0,0.0,80,0.00,,---,0.00,VWS V13.01,2013-10-12 08:57:00,
2013-10-12 04:58:00,79.3,72.6,29.86,SSE,158,0.0,0.0,80,0.00,,---,0.00,VWS V13.01,2013-10-12 08:58:00,
2013-10-12 04:59:00,79.3,72.6,29.86,South,180,0.0,0.0,80,0.00,,---,0.00,VWS V13.01,2013-10-12 08:59:00,
2013-10-12 05:02:00,79.3,72.6,29.86,SSE,158,0.0,0.0,80,0.00,,---,0.00,VWS V13.01,2013-10-12 09:02:00,
2013-10-12 05:03:00,79.3,72.6,29.86,SSE,158,0.0,0.0,80,0.00,,---,0.00,VWS V13.01,2013-10-12 09:03:00,
2013-10-12 05:04:00,79.3,72.6,29.86,SSE,158,0.0,0.0,80,0.00,,---,0.00,VWS V13.01,2013-10-12 09:04:00,
2013-10-12 05:05:00,79.3,72.6,29.86,SE,135,0.0,0.0,80,0.00,,---,0.00,VWS V13.01,2013-10-12 09:05:00,
2013-10-12 05:07:00,79.3,72.6,29.86,SE,135,0.0,0.0,80,0.00,,---,0.00,VWS V13.01,2013-10-12 09:07:00,
2013-10-12 05:08:00,79.3,72.6,29.86,SE,135,0.0,0.0,80,0.00,,---,0.00,VWS V13.01,2013-10-12 09:08:00,
2013-10-12 05:09:00,79.3,72.6,29.86,SE,135,0.0,0.0,80,0.00,,---,0.00,VWS V13.01,2013-10-12 09:09:00,
2013-10-12 05:10:00,79.3,72.6,29.86,SE,135,0.0,0.0,80,0.00,,---,0.00,VWS V13.01,2013-10-12 09:10:00,
2013-10-12 05:13:00,79.3,72.6,29.86,South,180,0.0,0.0,80,0.00,,---,0.00,VWS V13.01,2013-10-12 09:13:00,
2013-10-12 05:14:00,79.3,72.6,29.86,South,180,0.0,0.0,80,0.00,,---,0.00,VWS V13.01,2013-10-12 09:14:00,
2013-10-12 05:15:00,79.3,72.6,29.86,South,180,0.0,0.0,80,0.00,,---,0.00,VWS V13.01,2013-10-12 09:15:00,
2013-10-12 05:18:00,79.3,72.6,29.87,South,180,0.0,0.0,80,0.00,,---,0.00,VWS V13.01,2013-10-12 09:18:00,
2013-10-12 05:19:00,79.3,72.6,29.87,South,180,0.0,0.0,80,0.00,,---,0.00,VWS V13.01,2013-10-12 09:19:00,
2013-10-12 05:20:00,79.3,72.6,29.87,South,180,0.0,0.0,80,0.00,,---,0.00,VWS V13.01,2013-10-12 09:20:00,
2013-10-12 05:23:00,79.3,72.6,29.87,South,180,0.0,0.0,80,0.00,,---,0.00,VWS V13.01,2013-10-12 09:23:00,
2013-10-12 05:24:00,79.3,72.6,29.87,South,180,0.0,0.0,80,0.00,,---,0.00,VWS V13.01,2013-10-12 09:24:00,
2013-10-12 05:25:00,79.3,72.6,29.87,South,180,0.0,0.0,80,0.00,,---,0.00,VWS V13.01,2013-10-12 09:25:00,
2013-10-12 05:28:00,79.3,72.6,29.87,South,180,0.0,0.0,80,0.00,,---,0.00,VWS V13.01,2013-10-12 09:28:00,
2013-10-12 05:29:00,79.1,72.4,29.86,South,180,0.0,0.0,80,0.00,,---,0.00,VWS V13.01,2013-10-12 09:29:00,
2013-10-12 05:30:00,79.1,72.4,29.87,South,180,0.0,0.0,80,0.00,,---,0.00,VWS V13.01,2013-10-12 09:30:00,
2013-10-12 05:33:00,79.1,72.4,29.87,South,180,0.0,0.0,80,0.00,,---,0.00,VWS V13.01,2013-10-12 09:33:00,
2013-10-12 05:34:00,79.1,72.4,29.87,South,180,0.0,0.0,80,0.00,,---,0.00,VWS V13.01,2013-10-12 09:34:00,
2013-10-12 05:35:00,79.1,72.4,29.87,South,180,0.0,0.0,80,0.00,,---,0.00,VWS V13.01,2013-10-12 09:35:00,
2013-10-12 05:38:00,79.1,72.8,29.87,South,180,0.0,0.0,81,0.00,,---,0.00,VWS V13.01,2013-10-12 09:38:00,
2013-10-12 05:39:00,79.1,72.8,29.86,South,180,0.0,0.0,81,0.00,,---,0.00,VWS V13.01,2013-10-12 09:39:00,
2013-10-12 05:40:00,79.1,72.8,29.86,South,180,0.0,0.0,81,0.00,,---,0.00,VWS V13.01,2013-10-12 09:40:00,
2013-10-12 05:41:00,79.1,72.8,29.86,South,180,0.0,0.0,81,0.00,,---,0.00,VWS V13.01,2013-10-12 09:41:00,
2013-10-12 05:43:00,79.1,72.8,29.87,South,180,0.0,0.0,81,0.00,,---,0.00,VWS V13.01,2013-10-12 09:43:00,
2013-10-12 05:45:00,78.9,72.6,29.87,WSW,248,0.0,0.0,81,0.00,,---,0.00,VWS V13.01,2013-10-12 09:45:00,
2013-10-12 05:46:00,78.9,72.6,29.87,SSW,202,0.0,0.0,81,0.00,,---,0.00,VWS V13.01,2013-10-12 09:46:00,
2013-10-12 05:48:00,78.9,72.6,29.87,SSW,202,0.0,0.0,81,0.00,,---,0.00,VWS V13.01,2013-10-12 09:48:00,
2013-10-12 05:50:00,78.9,72.6,29.87,SSW,202,0.0,0.0,81,0.00,,---,0.00,VWS V13.01,2013-10-12 09:50:00,
2013-10-12 05:51:00,78.9,72.6,29.87,SSW,202,0.0,0.0,81,0.00,,---,0.00,VWS V13.01,2013-10-12 09:51:00,
2013-10-12 05:53:00,78.9,72.6,29.87,South,180,0.0,0.0,81,0.00,,---,0.00,VWS V13.01,2013-10-12 09:53:00,
2013-10-12 05:55:00,78.9,72.6,29.88,WSW,248,0.0,0.0,81,0.00,,---,0.00,VWS V13.01,2013-10-12 09:55:00,
2013-10-12 05:56:00,78.9,72.6,29.88,South,180,0.0,0.0,81,0.00,,---,0.00,VWS V13.01,2013-10-12 09:56:00,
2013-10-12 05:58:00,78.9,72.6,29.88,South,180,0.0,0.0,81,0.00,,---,0.00,VWS V13.01,2013-10-12 09:58:00,
2013-10-12 06:00:00,78.9,72.6,29.87,South,180,0.0,0.0,81,0.00,,---,0.00,VWS V13.01,2013-10-12 10:00:00,
2013-10-12 06:01:00,78.9,72.6,29.88,South,180,0.0,0.0,81,0.00,,---,0.00,VWS V13.01,2013-10-12 10:01:00,
2013-10-12 06:03:00,78.9,72.6,29.87,South,180,0.0,0.0,81,0.00,,---,0.00,VWS V13.01,2013-10-12 10:03:00,
2013-10-12 06:06:00,78.9,72.6,29.87,SSW,202,0.0,0.0,81,0.00,,---,0.00,VWS V13.01,2013-10-12 10:06:00,
2013-10-12 06:08:00,78.9,72.6,29.88,WSW,248,0.0,0.0,81,0.00,,---,0.00,VWS V13.01,2013-10-12 10:08:00,
2013-10-12 06:11:00,78.8,72.5,29.88,SW,225,0.0,0.0,81,0.00,,---,0.00,VWS V13.01,2013-10-12 10:11:00,
2013-10-12 06:13:00,78.9,72.6,29.88,SW,225,0.0,0.0,81,0.00,,---,0.00,VWS V13.01,2013-10-12 10:13:00,
2013-10-12 06:16:00,78.8,72.5,29.89,SW,225,0.0,0.0,81,0.00,,---,0.00,VWS V13.01,2013-10-12 10:16:00,
2013-10-12 06:18:00,78.9,72.6,29.88,SW,225,0.0,0.0,81,0.00,,---,0.00,VWS V13.01,2013-10-12 10:18:00,
2013-10-12 06:21:00,78.8,72.5,29.88,SSW,202,0.0,0.0,81,0.00,,---,0.00,VWS V13.01,2013-10-12 10:21:00,
2013-10-12 06:23:00,78.8,72.5,29.88,South,180,0.0,0.0,81,0.00,,---,0.00,VWS V13.01,2013-10-12 10:23:00,
2013-10-12 06:24:00,78.8,72.5,29.88,South,180,0.0,0.0,81,0.00,,---,0.00,VWS V13.01,2013-10-12 10:24:00,
2013-10-12 06:26:00,78.6,72.3,29.88,South,180,0.0,0.0,81,0.00,,---,0.00,VWS V13.01,2013-10-12 10:26:00,
2013-10-12 06:27:00,78.6,72.3,29.88,South,180,0.0,0.0,81,0.00,,---,0.00,VWS V13.01,2013-10-12 10:27:00,
2013-10-12 06:28:00,78.6,72.3,29.88,South,180,0.0,0.0,81,0.00,,---,0.00,VWS V13.01,2013-10-12 10:28:00,
2013-10-12 06:29:00,78.6,72.3,29.88,South,180,0.0,0.0,81,0.00,,---,0.00,VWS V13.01,2013-10-12 10:29:00,
2013-10-12 06:31:00,78.8,72.5,29.88,South,180,0.0,0.0,81,0.00,,---,0.00,VWS V13.01,2013-10-12 10:31:00,
2013-10-12 06:32:00,78.8,72.5,29.88,South,180,0.0,0.0,81,0.00,,---,0.00,VWS V13.01,2013-10-12 10:32:00,
2013-10-12 06:34:00,78.8,72.5,29.88,SSW,202,1.5,1.5,81,0.00,,---,0.00,VWS V13.01,2013-10-12 10:34:00,
2013-10-12 06:36:00,78.6,72.3,29.88,SSW,202,0.0,0.0,81,0.00,,---,0.00,VWS V13.01,2013-10-12 10:36:00,
2013-10-12 06:37:00,78.6,72.3,29.88,SSW,202,0.0,0.0,81,0.00,,---,0.00,VWS V13.01,2013-10-12 10:37:00,
2013-10-12 06:39:00,78.8,72.5,29.88,SSW,202,0.0,0.0,81,0.00,,---,0.00,VWS V13.01,2013-10-12 10:39:00,
2013-10-12 06:41:00,78.9,72.6,29.89,South,180,0.0,0.0,81,0.00,,---,0.00,VWS V13.01,2013-10-12 10:41:00,
2013-10-12 06:42:00,78.9,72.6,29.89,South,180,0.0,0.0,81,0.00,,---,0.00,VWS V13.01,2013-10-12 10:42:00,
2013-10-12 06:44:00,78.8,72.5,29.89,South,180,0.0,0.0,81,0.00,,---,0.00,VWS V13.01,2013-10-12 10:44:00,
2013-10-12 06:46:00,78.9,72.6,29.89,South,180,0.0,0.0,81,0.00,,---,0.00,VWS V13.01,2013-10-12 10:46:00,
2013-10-12 06:47:00,78.9,72.6,29.89,South,180,0.0,0.0,81,0.00,,---,0.00,VWS V13.01,2013-10-12 10:47:00,
2013-10-12 06:48:00,78.9,72.6,29.89,South,180,0.0,0.0,81,0.00,,---,0.00,VWS V13.01,2013-10-12 10:48:00,
2013-10-12 06:49:00,78.9,72.6,29.89,South,180,0.0,0.0,81,0.00,,---,0.00,VWS V13.01,2013-10-12 10:49:00,
2013-10-12 06:51:00,78.9,72.6,29.89,South,180,0.0,0.0,81,0.00,,---,0.00,VWS V13.01,2013-10-12 10:51:00,
2013-10-12 06:52:00,78.9,72.6,29.89,South,180,0.0,0.0,81,0.00,,---,0.00,VWS V13.01,2013-10-12 10:52:00,
2013-10-12 06:53:00,78.9,72.6,29.89,South,180,0.0,0.0,81,0.00,,---,0.00,VWS V13.01,2013-10-12 10:53:00,
2013-10-12 06:54:00,78.9,72.6,29.90,South,180,0.0,0.0,81,0.00,,---,0.00,VWS V13.01,2013-10-12 10:54:00,
2013-10-12 06:56:00,78.9,72.6,29.89,South,180,0.6,0.6,81,0.00,,---,0.02,VWS V13.01,2013-10-12 10:56:00,
2013-10-12 06:57:00,78.9,72.6,29.89,South,180,0.6,0.6,81,0.00,,---,0.00,VWS V13.01,2013-10-12 10:57:00,
2013-10-12 06:58:00,78.9,72.6,29.89,SSW,202,0.0,0.0,81,0.00,,---,0.00,VWS V13.01,2013-10-12 10:58:00,
2013-10-12 06:59:00,79.1,72.8,29.89,South,180,0.0,0.0,81,0.00,,---,0.00,VWS V13.01,2013-10-12 10:59:00,
2013-10-12 07:02:00,79.1,72.8,29.89,SSE,158,0.0,0.0,81,0.00,,---,0.00,VWS V13.01,2013-10-12 11:02:00,
2013-10-12 07:03:00,79.3,73.0,29.89,South,180,0.0,0.0,81,0.00,,---,0.00,VWS V13.01,2013-10-12 11:03:00,
2013-10-12 07:04:00,79.3,73.0,29.89,South,180,0.0,0.0,81,0.00,,---,0.00,VWS V13.01,2013-10-12 11:04:00,
2013-10-12 07:05:00,79.3,73.0,29.89,South,180,0.0,0.0,81,0.00,,---,0.00,VWS V13.01,2013-10-12 11:05:00,
2013-10-12 07:07:00,79.3,73.0,29.89,SSE,158,0.0,0.0,81,0.00,,---,0.00,VWS V13.01,2013-10-12 11:07:00,
2013-10-12 07:08:00,79.5,73.2,29.90,South,180,1.3,1.3,81,0.00,,---,0.00,VWS V13.01,2013-10-12 11:08:00,
2013-10-12 07:09:00,79.5,73.2,29.90,South,180,1.5,1.5,81,0.00,,---,0.00,VWS V13.01,2013-10-12 11:09:00,
2013-10-12 07:10:00,79.5,73.2,29.90,South,180,1.5,1.5,81,0.00,,---,0.00,VWS V13.01,2013-10-12 11:10:00,
2013-10-12 07:12:00,79.5,73.2,29.90,South,180,0.0,0.0,81,0.00,,---,0.00,VWS V13.01,2013-10-12 11:12:00,
2013-10-12 07:13:00,79.5,72.8,29.90,SSE,158,2.0,2.0,80,0.00,,---,0.00,VWS V13.01,2013-10-12 11:13:00,
2013-10-12 07:14:00,79.7,73.0,29.90,South,180,2.2,2.2,80,0.00,,---,0.00,VWS V13.01,2013-10-12 11:14:00,
2013-10-12 07:15:00,79.7,73.0,29.90,South,180,2.2,2.2,80,0.00,,---,0.00,VWS V13.01,2013-10-12 11:15:00,
2013-10-12 07:17:00,79.8,73.1,29.90,SW,225,0.0,0.0,80,0.00,,---,0.00,VWS V13.01,2013-10-12 11:17:00,
2013-10-12 07:18:00,79.8,73.1,29.89,SSW,202,0.6,0.6,80,0.00,,---,0.00,VWS V13.01,2013-10-12 11:18:00,
2013-10-12 07:19:00,79.8,73.1,29.90,South,180,1.3,1.3,80,0.00,,---,0.00,VWS V13.01,2013-10-12 11:19:00,
2013-10-12 07:20:00,79.8,73.1,29.90,South,180,1.3,1.3,80,0.00,,---,0.00,VWS V13.01,2013-10-12 11:20:00,
2013-10-12 07:22:00,79.8,72.7,29.90,SSE,158,0.0,0.0,79,0.00,,---,0.00,VWS V13.01,2013-10-12 11:22:00,
2013-10-12 07:23:00,80.2,73.5,29.90,SSW,202,0.0,0.0,80,0.00,,---,0.00,VWS V13.01,2013-10-12 11:23:00,
2013-10-12 07:24:00,80.2,73.5,29.90,North,0,0.0,0.0,80,0.00,,---,0.00,VWS V13.01,2013-10-12 11:24:00,
2013-10-12 07:26:00,80.2,73.5,29.90,SSW,202,0.0,0.0,80,0.00,,---,0.00,VWS V13.01,2013-10-12 11:26:00,
2013-10-12 07:27:00,80.2,73.5,29.91,South,180,0.0,0.0,80,0.00,,---,0.00,VWS V13.01,2013-10-12 11:27:00,
2013-10-12 07:29:00,80.2,73.5,29.91,South,180,0.0,0.0,80,0.00,,---,0.00,VWS V13.01,2013-10-12 11:29:00,
2013-10-12 07:31:00,80.4,73.7,29.90,SE,135,0.0,0.0,80,0.00,,---,0.00,VWS V13.01,2013-10-12 11:31:00,
2013-10-12 07:32:00,80.4,73.7,29.90,SSE,158,0.0,0.0,80,0.00,,---,0.00,VWS V13.01,2013-10-12 11:32:00,
2013-10-12 07:34:00,80.4,73.3,29.91,SE,135,0.0,0.0,79,0.00,,---,0.00,VWS V13.01,2013-10-12 11:34:00,
2013-10-12 07:36:00,80.4,73.3,29.90,SW,225,2.0,2.0,79,0.00,,---,0.00,VWS V13.01,2013-10-12 11:36:00,
2013-10-12 07:37:00,80.6,73.5,29.91,South,180,1.3,1.3,79,0.00,,---,0.00,VWS V13.01,2013-10-12 11:37:00,
2013-10-12 07:38:00,80.6,73.5,29.90,SSE,158,0.0,0.0,79,0.00,,---,0.00,VWS V13.01,2013-10-12 11:38:00,
2013-10-12 07:39:00,80.7,73.6,29.90,SE,135,0.0,0.0,79,0.00,,---,0.00,VWS V13.01,2013-10-12 11:39:00,
2013-10-12 07:41:00,80.7,73.6,29.91,SE,135,0.0,0.0,79,0.00,,---,0.00,VWS V13.01,2013-10-12 11:41:00,
2013-10-12 07:42:00,80.7,73.6,29.91,South,180,1.1,1.1,79,0.00,,---,0.00,VWS V13.01,2013-10-12 11:42:00,
2013-10-12 07:43:00,80.7,73.6,29.91,SSW,202,0.0,0.0,79,0.00,,---,0.00,VWS V13.01,2013-10-12 11:43:00,
2013-10-12 07:44:00,80.7,73.6,29.91,South,180,0.0,0.0,79,0.00,,---,0.00,VWS V13.01,2013-10-12 11:44:00,
2013-10-12 07:46:00,80.9,73.4,29.91,ESE,112,0.0,0.0,78,0.00,,---,0.00,VWS V13.01,2013-10-12 11:46:00,
2013-10-12 07:47:00,81.1,73.6,29.91,SSE,158,0.0,0.0,78,0.00,,---,0.00,VWS V13.01,2013-10-12 11:47:00,
2013-10-12 07:48:00,81.1,73.6,29.91,SSE,158,0.0,0.0,78,0.00,,---,0.00,VWS V13.01,2013-10-12 11:48:00,
2013-10-12 07:49:00,81.1,73.6,29.91,SE,135,0.0,0.0,78,0.00,,---,0.00,VWS V13.01,2013-10-12 11:49:00,
2013-10-12 07:51:00,81.1,73.6,29.91,ENE,68,0.0,0.0,78,0.00,,---,0.00,VWS V13.01,2013-10-12 11:51:00,
2013-10-12 07:52:00,81.1,73.6,29.91,SSE,158,0.0,0.0,78,0.00,,---,0.00,VWS V13.01,2013-10-12 11:52:00,
2013-10-12 07:53:00,81.1,73.6,29.91,SSE,158,0.0,0.0,78,0.00,,---,0.00,VWS V13.01,2013-10-12 11:53:00,
2013-10-12 07:54:00,81.1,73.6,29.91,SE,135,0.0,0.0,78,0.00,,---,0.00,VWS V13.01,2013-10-12 11:54:00,
2013-10-12 07:55:00,81.1,73.6,29.91,ENE,68,0.8,0.8,78,0.00,,---,0.00,VWS V13.01,2013-10-12 11:55:00,
2013-10-12 07:56:00,81.1,73.6,29.92,East,90,0.0,0.0,78,0.00,,---,0.00,VWS V13.01,2013-10-12 11:56:00,
2013-10-12 07:57:00,81.3,73.8,29.92,SSE,158,0.0,0.0,78,0.00,,---,0.00,VWS V13.01,2013-10-12 11:57:00,
2013-10-12 07:58:00,81.3,73.8,29.92,SSE,158,0.0,0.0,78,0.00,,---,0.00,VWS V13.01,2013-10-12 11:58:00,
2013-10-12 07:59:00,81.3,73.8,29.92,South,180,0.0,0.0,78,0.00,,---,0.00,VWS V13.01,2013-10-12 11:59:00,
2013-10-12 08:00:00,81.3,73.8,29.92,ENE,68,0.0,0.0,78,0.00,,---,0.00,VWS V13.01,2013-10-12 12:00:00,
2013-10-12 08:02:00,81.5,74.0,29.91,ESE,112,0.0,0.0,78,0.00,,---,0.00,VWS V13.01,2013-10-12 12:02:00,
2013-10-12 08:03:00,81.5,74.0,29.91,SSE,158,0.0,0.0,78,0.00,,---,0.00,VWS V13.01,2013-10-12 12:03:00,
2013-10-12 08:04:00,81.6,74.1,29.91,ESE,112,4.6,4.6,78,0.00,,---,0.00,VWS V13.01,2013-10-12 12:04:00,
2013-10-12 08:05:00,81.6,74.1,29.91,ESE,112,0.0,0.0,78,0.00,,---,0.00,VWS V13.01,2013-10-12 12:05:00,
2013-10-12 08:07:00,81.6,74.1,29.91,SSE,158,1.7,1.7,78,0.00,,---,0.00,VWS V13.01,2013-10-12 12:07:00,
2013-10-12 08:08:00,81.6,74.1,29.91,SE,135,3.5,3.5,78,0.00,,---,0.00,VWS V13.01,2013-10-12 12:08:00,
2013-10-12 08:09:00,82.0,74.5,29.91,South,180,2.9,3.1,78,0.00,,---,0.00,VWS V13.01,2013-10-12 12:09:00,
2013-10-12 08:10:00,82.0,74.5,29.91,South,180,2.9,2.9,78,0.00,,---,0.00,VWS V13.01,2013-10-12 12:10:00,
2013-10-12 08:12:00,82.0,74.5,29.91,SE,135,0.0,0.0,78,0.00,,---,0.00,VWS V13.01,2013-10-12 12:12:00,
2013-10-12 08:13:00,82.0,74.5,29.91,East,90,0.0,0.0,78,0.00,,---,0.00,VWS V13.01,2013-10-12 12:13:00,
2013-10-12 08:14:00,82.0,74.1,29.91,SSE,158,0.0,0.0,77,0.00,,---,0.00,VWS V13.01,2013-10-12 12:14:00,
2013-10-12 08:15:00,82.0,74.1,29.91,SSE,158,0.0,0.0,77,0.00,,---,0.00,VWS V13.01,2013-10-12 12:15:00,
2013-10-12 08:17:00,82.2,74.3,29.91,SSE,158,5.3,5.3,77,0.00,,---,0.00,VWS V13.01,2013-10-12 12:17:00,
2013-10-12 08:18:00,82.2,74.3,29.91,SSE,158,2.0,2.0,77,0.00,,---,0.00,VWS V13.01,2013-10-12 12:18:00,
2013-10-12 08:19:00,82.2,74.3,29.91,SSE,158,3.5,3.5,77,0.00,,---,0.00,VWS V13.01,2013-10-12 12:19:00,
2013-10-12 08:20:00,82.2,74.3,29.91,South,180,4.4,4.4,77,0.00,,---,0.00,VWS V13.01,2013-10-12 12:20:00,
2013-10-12 08:22:00,82.2,74.3,29.91,SSE,158,2.6,2.6,77,0.00,,---,0.00,VWS V13.01,2013-10-12 12:22:00,
2013-10-12 08:23:00,82.2,74.3,29.91,SSE,158,1.5,1.5,77,0.00,,---,0.00,VWS V13.01,2013-10-12 12:23:00,
2013-10-12 08:25:00,82.5,74.6,29.91,SE,135,5.5,5.5,77,0.00,,---,0.00,VWS V13.01,2013-10-12 12:25:00,
2013-10-12 08:27:00,82.5,74.2,29.91,SSE,158,1.1,1.1,76,0.00,,---,0.00,VWS V13.01,2013-10-12 12:27:00,
2013-10-12 08:28:00,82.5,74.2,29.91,ESE,112,2.0,2.0,76,0.00,,---,0.00,VWS V13.01,2013-10-12 12:28:00,
2013-10-12 08:29:00,82.7,74.4,29.92,SE,135,0.0,0.0,76,0.00,,---,0.00,VWS V13.01,2013-10-12 12:29:00,
2013-10-12 08:30:00,82.7,74.4,29.92,SSE,158,3.8,3.8,76,0.00,,---,0.00,VWS V13.01,2013-10-12 12:30:00,
2013-10-12 08:32:00,82.7,74.4,29.92,South,180,1.1,1.1,76,0.00,,---,0.00,VWS V13.01,2013-10-12 12:32:00,
2013-10-12 08:33:00,82.9,74.6,29.91,SSE,158,0.0,0.0,76,0.00,,---,0.00,VWS V13.01,2013-10-12 12:33:00,
2013-10-12 08:34:00,82.9,74.6,29.91,SSE,158,3.8,3.8,76,0.00,,---,0.00,VWS V13.01,2013-10-12 12:34:00,
2013-10-12 08:35:00,83.1,74.8,29.92,SE,135,7.1,7.1,76,0.00,,---,0.00,VWS V13.01,2013-10-12 12:35:00,
2013-10-12 08:37:00,83.1,74.8,29.91,SSE,158,0.0,0.0,76,0.00,,---,0.00,VWS V13.01,2013-10-12 12:37:00,
2013-10-12 08:38:00,83.1,74.8,29.91,SSE,158,0.0,0.0,76,0.00,,---,0.00,VWS V13.01,2013-10-12 12:38:00,
2013-10-12 08:39:00,83.1,74.8,29.92,SSE,158,5.1,5.1,76,0.00,,---,0.00,VWS V13.01,2013-10-12 12:39:00,
2013-10-12 08:40:00,83.1,74.8,29.92,ESE,112,0.0,0.0,76,0.00,,---,0.00,VWS V13.01,2013-10-12 12:40:00,
2013-10-12 08:43:00,83.3,74.9,29.92,SSE,158,1.7,1.7,76,0.00,,---,0.00,VWS V13.01,2013-10-12 12:43:00,
2013-10-12 08:44:00,83.4,75.1,29.92,South,180,1.5,1.5,76,0.00,,---,0.00,VWS V13.01,2013-10-12 12:44:00,
2013-10-12 08:45:00,83.4,75.1,29.92,SSW,202,6.0,6.0,76,0.00,,---,0.00,VWS V13.01,2013-10-12 12:45:00,
2013-10-12 08:48:00,83.8,75.4,29.93,South,180,4.2,4.2,76,0.00,,---,0.00,VWS V13.01,2013-10-12 12:48:00,
2013-10-12 08:49:00,83.8,75.4,29.92,SE,135,2.4,2.4,76,0.00,,---,0.00,VWS V13.01,2013-10-12 12:49:00,
2013-10-12 08:50:00,83.8,75.4,29.93,SE,135,0.0,0.0,76,0.00,,---,0.00,VWS V13.01,2013-10-12 12:50:00,
2013-10-12 08:53:00,83.8,75.4,29.93,SSE,158,3.8,3.8,76,0.00,,---,0.00,VWS V13.01,2013-10-12 12:53:00,
2013-10-12 08:54:00,84.0,75.6,29.93,South,180,4.4,4.4,76,0.00,,---,0.00,VWS V13.01,2013-10-12 12:54:00,
2013-10-12 08:55:00,84.0,75.6,29.93,SSW,202,2.9,2.9,76,0.00,,---,0.00,VWS V13.01,2013-10-12 12:55:00,
2013-10-12 08:58:00,84.2,75.4,29.93,ENE,68,1.5,1.5,75,0.00,,---,0.00,VWS V13.01,2013-10-12 12:58:00,
2013-10-12 08:59:00,84.3,75.5,29.93,ESE,112,0.0,0.0,75,0.00,,---,0.00,VWS V13.01,2013-10-12 12:59:00,
2013-10-12 09:01:00,84.3,75.5,29.93,SE,135,2.0,2.0,75,0.00,,---,0.00,VWS V13.01,2013-10-12 13:01:00,
2013-10-12 09:03:00,84.5,75.7,29.92,WSW,248,0.0,0.0,75,0.00,,---,0.00,VWS V13.01,2013-10-12 13:03:00,
2013-10-12 09:04:00,84.5,75.7,29.93,SE,135,2.4,2.4,75,0.00,,---,0.00,VWS V13.01,2013-10-12 13:04:00,
2013-10-12 09:06:00,84.7,75.9,29.93,ESE,112,2.0,2.0,75,0.00,,---,0.00,VWS V13.01,2013-10-12 13:06:00,
2013-10-12 09:08:00,84.9,76.1,29.93,NE,45,2.9,2.9,75,0.00,,---,0.00,VWS V13.01,2013-10-12 13:08:00,
2013-10-12 09:09:00,84.9,76.1,29.93,East,90,4.2,4.2,75,0.00,,---,0.00,VWS V13.01,2013-10-12 13:09:00,
2013-10-12 09:11:00,85.1,75.9,29.93,ENE,68,11.6,11.6,74,0.00,,---,0.00,VWS V13.01,2013-10-12 13:11:00,
2013-10-12 09:13:00,85.1,75.9,29.93,ENE,68,3.8,3.8,74,0.00,,---,0.00,VWS V13.01,2013-10-12 13:13:00,
2013-10-12 09:14:00,85.1,75.9,29.93,East,90,3.8,3.8,74,0.00,,---,0.00,VWS V13.01,2013-10-12 13:14:00,
2013-10-12 09:16:00,85.1,76.3,29.93,ENE,68,3.8,3.8,75,0.00,,---,0.00,VWS V13.01,2013-10-12 13:16:00,
2013-10-12 09:18:00,85.2,76.4,29.93,East,90,3.1,3.1,75,0.00,,---,0.00,VWS V13.01,2013-10-12 13:18:00,
2013-10-12 09:19:00,85.2,76.0,29.93,ENE,68,5.1,5.1,74,0.00,,---,0.00,VWS V13.01,2013-10-12 13:19:00,
2013-10-12 09:21:00,85.2,76.0,29.93,ENE,68,10.0,10.0,74,0.00,,---,0.00,VWS V13.01,2013-10-12 13:21:00,
2013-10-12 09:23:00,85.2,76.0,29.93,East,90,0.0,0.0,74,0.00,,---,0.00,VWS V13.01,2013-10-12 13:23:00,
2013-10-12 09:24:00,85.2,76.0,29.93,East,90,0.0,0.0,74,0.00,,---,0.00,VWS V13.01,2013-10-12 13:24:00,
2013-10-12 09:26:00,85.2,76.0,29.93,East,90,3.8,3.8,74,0.00,,---,0.00,VWS V13.01,2013-10-12 13:26:00,
2013-10-12 09:28:00,85.4,76.2,29.93,ESE,112,3.8,3.8,74,0.00,,---,0.00,VWS V13.01,2013-10-12 13:28:00,
2013-10-12 09:29:00,85.4,76.2,29.93,ESE,112,3.8,3.8,74,0.00,,---,0.00,VWS V13.01,2013-10-12 13:29:00,
2013-10-12 09:31:00,85.6,76.4,29.93,ENE,68,6.0,6.0,74,0.00,,---,0.00,VWS V13.01,2013-10-12 13:31:00,
2013-10-12 09:34:00,85.6,76.0,29.93,ENE,68,3.5,3.5,73,0.00,,---,0.00,VWS V13.01,2013-10-12 13:34:00,
2013-10-12 09:35:00,85.6,76.0,29.93,ESE,112,2.0,2.0,73,0.00,,---,0.00,VWS V13.01,2013-10-12 13:35:00,
2013-10-12 09:36:00,85.6,76.0,29.93,ESE,112,3.8,3.8,73,0.00,,---,0.00,VWS V13.01,2013-10-12 13:36:00,
2013-10-12 09:39:00,85.8,75.7,29.93,ESE,112,1.3,1.3,72,0.00,,---,0.00,VWS V13.01,2013-10-12 13:39:00,
2013-10-12 09:40:00,85.8,75.7,29.93,East,90,2.0,2.0,72,0.00,,---,0.00,VWS V13.01,2013-10-12 13:40:00,
2013-10-12 09:41:00,85.8,75.7,29.93,ESE,112,4.0,4.0,72,0.00,,---,0.00,VWS V13.01,2013-10-12 13:41:00,
2013-10-12 09:44:00,85.8,75.7,29.94,East,90,3.5,3.5,72,0.00,,---,0.00,VWS V13.01,2013-10-12 13:44:00,
2013-10-12 09:45:00,85.8,75.7,29.94,ENE,68,6.7,6.7,72,0.00,,---,0.00,VWS V13.01,2013-10-12 13:45:00,
2013-10-12 09:46:00,86.1,76.0,29.94,NE,45,2.2,2.2,72,0.00,,---,0.00,VWS V13.01,2013-10-12 13:46:00,
2013-10-12 09:47:00,86.1,76.0,29.94,NE,45,4.4,4.4,72,0.00,,---,0.00,VWS V13.01,2013-10-12 13:47:00,
2013-10-12 09:49:00,86.1,76.0,29.93,ENE,68,7.3,7.3,72,0.00,,---,0.00,VWS V13.01,2013-10-12 13:49:00,
2013-10-12 09:50:00,86.1,76.0,29.93,ENE,68,4.9,4.9,72,0.00,,---,0.00,VWS V13.01,2013-10-12 13:50:00,
2013-10-12 09:51:00,86.1,76.0,29.94,ENE,68,8.2,8.2,72,0.00,,---,0.00,VWS V13.01,2013-10-12 13:51:00,
2013-10-12 09:52:00,86.1,76.0,29.94,NE,45,3.3,3.3,72,0.00,,---,0.00,VWS V13.01,2013-10-12 13:52:00,
2013-10-12 09:54:00,86.1,76.0,29.94,East,90,1.3,1.3,72,0.00,,---,0.00,VWS V13.01,2013-10-12 13:54:00,
2013-10-12 09:55:00,86.3,76.2,29.94,ENE,68,1.3,1.3,72,0.00,,---,0.00,VWS V13.01,2013-10-12 13:55:00,
2013-10-12 09:56:00,86.3,76.2,29.93,East,90,1.3,1.3,72,0.00,,---,0.00,VWS V13.01,2013-10-12 13:56:00,
2013-10-12 09:57:00,86.3,76.2,29.93,ENE,68,5.3,5.3,72,0.00,,---,0.00,VWS V13.01,2013-10-12 13:57:00,
2013-10-12 09:59:00,86.3,76.2,29.93,East,90,7.3,7.3,72,0.00,,---,0.00,VWS V13.01,2013-10-12 13:59:00,
2013-10-12 10:00:00,86.3,76.2,29.93,East,90,0.0,0.0,72,0.00,,---,0.00,VWS V13.01,2013-10-12 14:00:00,
2013-10-12 10:01:00,86.3,76.2,29.93,ENE,68,2.0,2.0,72,0.00,,---,0.00,VWS V13.01,2013-10-12 14:01:00,
2013-10-12 10:02:00,86.3,76.2,29.93,ENE,68,6.4,6.4,72,0.00,,---,0.00,VWS V13.01,2013-10-12 14:02:00,
2013-10-12 10:04:00,86.3,76.2,29.93,ENE,68,2.2,2.2,72,0.00,,---,0.00,VWS V13.01,2013-10-12 14:04:00,
2013-10-12 10:05:00,86.3,76.2,29.93,East,90,4.0,4.0,72,0.00,,---,0.00,VWS V13.01,2013-10-12 14:05:00,
2013-10-12 10:06:00,86.3,76.2,29.93,East,90,6.2,6.2,72,0.00,,---,0.00,VWS V13.01,2013-10-12 14:06:00,
2013-10-12 10:08:00,86.3,76.6,29.93,ENE,68,2.0,2.0,73,0.00,,---,0.00,VWS V13.01,2013-10-12 14:08:00,
2013-10-12 10:09:00,86.1,76.4,29.93,ENE,68,2.0,2.0,73,0.00,,---,0.00,VWS V13.01,2013-10-12 14:09:00,
2013-10-12 10:10:00,86.1,76.4,29.93,East,90,4.9,4.9,73,0.00,,---,0.00,VWS V13.01,2013-10-12 14:10:00,
2013-10-12 10:11:00,86.1,76.4,29.93,East,90,4.4,4.4,73,0.00,,---,0.00,VWS V13.01,2013-10-12 14:11:00,
2013-10-12 10:13:00,85.8,76.2,29.93,ENE,68,8.0,8.0,73,0.00,,---,0.00,VWS V13.01,2013-10-12 14:13:00,
2013-10-12 10:14:00,85.8,76.2,29.93,NE,45,2.6,2.6,73,0.00,,---,0.00,VWS V13.01,2013-10-12 14:14:00,
2013-10-12 10:15:00,85.8,76.2,29.93,ENE,68,4.9,4.9,73,0.00,,---,0.00,VWS V13.01,2013-10-12 14:15:00,
2013-10-12 10:16:00,85.8,76.2,29.93,East,90,0.8,0.8,73,0.00,,---,0.00,VWS V13.01,2013-10-12 14:16:00,
2013-10-12 10:18:00,85.8,76.6,29.93,NE,45,4.9,4.9,74,0.00,,---,0.00,VWS V13.01,2013-10-12 14:18:00,
2013-10-12 10:19:00,85.8,76.6,29.92,East,90,6.2,6.2,74,0.00,,---,0.00,VWS V13.01,2013-10-12 14:19:00,
2013-10-12 10:20:00,85.8,76.6,29.92,ENE,68,4.6,4.6,74,0.00,,---,0.00,VWS V13.01,2013-10-12 14:20:00,
2013-10-12 10:21:00,85.8,76.6,29.93,East,90,5.3,5.3,74,0.00,,---,0.00,VWS V13.01,2013-10-12 14:21:00,
2013-10-12 10:23:00,85.8,76.6,29.92,East,90,3.8,3.8,74,0.00,,---,0.00,VWS V13.01,2013-10-12 14:23:00,
2013-10-12 10:24:00,85.8,76.6,29.92,East,90,6.9,6.9,74,0.00,,---,0.00,VWS V13.01,2013-10-12 14:24:00,
2013-10-12 10:25:00,85.8,76.6,29.92,ENE,68,5.1,5.1,74,0.00,,---,0.00,VWS V13.01,2013-10-12 14:25:00,
2013-10-12 10:26:00,85.8,76.6,29.92,NE,45,6.0,6.0,74,0.00,,---,0.00,VWS V13.01,2013-10-12 14:26:00,
2013-10-12 10:29:00,85.8,76.6,29.91,ENE,68,4.9,4.9,74,0.00,,---,0.00,VWS V13.01,2013-10-12 14:29:00,
2013-10-12 10:30:00,85.8,77.0,29.92,ENE,68,8.5,8.5,75,0.00,,---,0.00,VWS V13.01,2013-10-12 14:30:00,
2013-10-12 10:31:00,85.8,77.0,29.91,ESE,112,9.8,9.8,75,0.00,,---,0.00,VWS V13.01,2013-10-12 14:31:00,
2013-10-12 10:34:00,86.1,77.2,29.91,ESE,112,5.3,5.3,75,0.00,,---,0.00,VWS V13.01,2013-10-12 14:34:00,
2013-10-12 10:35:00,86.1,76.8,29.91,ESE,112,8.0,8.0,74,0.00,,---,0.00,VWS V13.01,2013-10-12 14:35:00,
2013-10-12 10:36:00,86.3,77.0,29.91,ENE,68,12.9,12.9,74,0.00,,---,0.00,VWS V13.01,2013-10-12 14:36:00,
2013-10-12 10:39:00,86.3,77.0,29.91,ENE,68,8.2,8.2,74,0.00,,---,0.00,VWS V13.01,2013-10-12 14:39:00,
2013-10-12 10:40:00,86.3,77.0,29.91,ENE,68,6.4,6.4,74,0.00,,---,0.00,VWS V13.01,2013-10-12 14:40:00,
2013-10-12 10:41:00,86.3,77.0,29.91,ESE,112,5.1,5.1,74,0.00,,---,0.00,VWS V13.01,2013-10-12 14:41:00,
2013-10-12 10:44:00,86.5,77.2,29.91,ENE,68,7.6,7.6,74,0.00,,---,0.00,VWS V13.01,2013-10-12 14:44:00,
2013-10-12 10:45:00,86.5,77.2,29.91,NE,45,4.4,4.4,74,0.00,,---,0.00,VWS V13.01,2013-10-12 14:45:00,
2013-10-12 10:46:00,86.5,77.2,29.91,NE,45,4.4,4.4,74,0.00,,---,0.00,VWS V13.01,2013-10-12 14:46:00,
2013-10-12 10:49:00,86.5,77.6,29.91,ENE,68,2.9,2.9,75,0.00,,---,0.00,VWS V13.01,2013-10-12 14:49:00,
2013-10-12 10:50:00,86.7,77.4,29.91,ENE,68,6.0,6.0,74,0.00,,---,0.00,VWS V13.01,2013-10-12 14:50:00,
2013-10-12 10:51:00,86.7,77.4,29.91,ENE,68,6.0,6.0,74,0.00,,---,0.00,VWS V13.01,2013-10-12 14:51:00,
2013-10-12 10:54:00,86.7,77.4,29.90,ENE,68,8.9,8.9,74,0.00,,---,0.00,VWS V13.01,2013-10-12 14:54:00,
2013-10-12 10:56:00,86.7,77.4,29.90,ENE,68,5.5,5.5,74,0.00,,---,0.00,VWS V13.01,2013-10-12 14:56:00,
2013-10-12 10:59:00,86.7,77.4,29.90,East,90,9.6,9.6,74,0.00,,---,0.00,VWS V13.01,2013-10-12 14:59:00,
2013-10-12 11:01:00,86.7,77.4,29.90,ENE,68,6.0,6.0,74,0.00,,---,0.00,VWS V13.01,2013-10-12 15:01:00,
2013-10-12 11:04:00,87.0,77.3,29.90,ENE,68,8.7,8.7,73,0.00,,---,0.00,VWS V13.01,2013-10-12 15:04:00,
2013-10-12 11:06:00,87.0,76.9,29.90,East,90,4.6,4.6,72,0.00,,---,0.00,VWS V13.01,2013-10-12 15:06:00,
2013-10-12 11:09:00,87.2,77.1,29.90,ESE,112,6.0,6.0,72,0.00,,---,0.00,VWS V13.01,2013-10-12 15:09:00,
2013-10-12 11:10:00,87.6,77.0,29.90,ESE,112,5.5,5.5,71,0.00,,---,0.00,VWS V13.01,2013-10-12 15:10:00,
2013-10-12 11:11:00,87.6,77.0,29.90,ESE,112,5.5,5.5,71,0.00,,---,0.00,VWS V13.01,2013-10-12 15:11:00,
2013-10-12 11:12:00,87.6,77.0,29.90,East,90,8.9,8.9,71,0.00,,---,0.00,VWS V13.01,2013-10-12 15:12:00,
2013-10-12 11:14:00,87.8,77.2,29.90,NNE,22,8.2,8.2,71,0.00,,---,0.00,VWS V13.01,2013-10-12 15:14:00,
2013-10-12 11:15:00,87.8,77.2,29.90,East,90,5.1,5.1,71,0.00,,---,0.00,VWS V13.01,2013-10-12 15:15:00,
2013-10-12 11:16:00,87.9,77.3,29.90,NE,45,7.8,7.8,71,0.00,,---,0.00,VWS V13.01,2013-10-12 15:16:00,
2013-10-12 11:17:00,87.9,77.3,29.90,NE,45,7.8,7.8,71,0.00,,---,0.00,VWS V13.01,2013-10-12 15:17:00,
2013-10-12 11:19:00,87.9,77.3,29.90,East,90,3.8,3.8,71,0.00,,---,0.00,VWS V13.01,2013-10-12 15:19:00,
2013-10-12 11:20:00,87.9,77.3,29.90,East,90,3.8,3.8,71,0.00,,---,0.00,VWS V13.01,2013-10-12 15:20:00,
2013-10-12 11:21:00,88.1,77.1,29.90,East,90,4.4,4.4,70,0.00,,---,0.00,VWS V13.01,2013-10-12 15:21:00,
2013-10-12 11:22:00,88.1,77.1,29.90,East,90,4.4,4.4,70,0.00,,---,0.00,VWS V13.01,2013-10-12 15:22:00,
2013-10-12 11:24:00,88.3,77.3,29.90,NE,45,4.0,4.0,70,0.00,,---,0.00,VWS V13.01,2013-10-12 15:24:00,
2013-10-12 11:25:00,88.3,77.3,29.90,NE,45,4.0,4.0,70,0.00,,---,0.00,VWS V13.01,2013-10-12 15:25:00,
2013-10-12 11:26:00,88.3,77.3,29.90,East,90,3.5,3.5,70,0.00,,---,0.00,VWS V13.01,2013-10-12 15:26:00,
2013-10-12 11:27:00,88.3,77.3,29.90,ENE,68,9.6,9.6,70,0.00,,---,0.00,VWS V13.01,2013-10-12 15:27:00,
2013-10-12 11:29:00,88.5,77.5,29.89,East,90,8.2,8.2,70,0.00,,---,0.00,VWS V13.01,2013-10-12 15:29:00,
2013-10-12 11:30:00,88.5,77.5,29.89,East,90,8.2,8.2,70,0.00,,---,0.00,VWS V13.01,2013-10-12 15:30:00,
2013-10-12 11:31:00,88.5,77.5,29.89,East,90,6.9,6.9,70,0.00,,---,0.00,VWS V13.01,2013-10-12 15:31:00,
2013-10-12 11:32:00,88.5,77.0,29.89,East,90,3.8,3.8,69,0.00,,---,0.00,VWS V13.01,2013-10-12 15:32:00,
2013-10-12 11:35:00,88.7,77.2,29.89,ENE,68,7.1,7.1,69,0.00,,---,0.00,VWS V13.01,2013-10-12 15:35:00,
2013-10-12 11:36:00,88.7,77.2,29.89,ESE,112,5.1,5.1,69,0.00,,---,0.00,VWS V13.01,2013-10-12 15:36:00,
2013-10-12 11:37:00,88.8,77.3,29.89,ENE,68,4.9,4.9,69,0.00,,---,0.00,VWS V13.01,2013-10-12 15:37:00,
2013-10-12 11:40:00,88.8,77.3,29.89,ESE,112,6.2,6.2,69,0.00,,---,0.00,VWS V13.01,2013-10-12 15:40:00,
2013-10-12 11:41:00,88.8,77.3,29.89,NNE,22,4.9,4.9,69,0.00,,---,0.00,VWS V13.01,2013-10-12 15:41:00,
2013-10-12 11:42:00,88.8,77.3,29.89,ENE,68,7.6,7.6,69,0.00,,---,0.00,VWS V13.01,2013-10-12 15:42:00,
2013-10-12 11:45:00,89.2,77.7,29.89,ESE,112,9.3,9.3,69,0.00,,---,0.00,VWS V13.01,2013-10-12 15:45:00,
2013-10-12 11:46:00,89.2,77.7,29.89,East,90,8.0,8.0,69,0.00,,---,0.00,VWS V13.01,2013-10-12 15:46:00,
2013-10-12 11:47:00,89.2,77.7,29.89,ENE,68,11.6,11.6,69,0.00,,---,0.00,VWS V13.01,2013-10-12 15:47:00,
2013-10-12 11:50:00,89.2,77.7,29.89,ENE,68,6.0,6.0,69,0.00,,---,0.00,VWS V13.01,2013-10-12 15:50:00,
2013-10-12 11:51:00,89.4,77.9,29.88,East,90,10.5,10.5,69,0.00,,---,0.00,VWS V13.01,2013-10-12 15:51:00,
2013-10-12 11:52:00,89.4,77.9,29.89,ESE,112,4.0,4.0,69,0.00,,---,0.00,VWS V13.01,2013-10-12 15:52:00,
2013-10-12 11:55:00,89.4,77.4,29.88,East,90,11.6,11.6,68,0.00,,---,0.00,VWS V13.01,2013-10-12 15:55:00,
2013-10-12 11:56:00,89.4,77.4,29.88,ESE,112,7.3,7.3,68,0.00,,---,0.00,VWS V13.01,2013-10-12 15:56:00,
2013-10-12 11:57:00,89.4,77.9,29.89,East,90,6.2,6.2,69,0.00,,---,0.00,VWS V13.01,2013-10-12 15:57:00,
2013-10-12 12:00:00,89.7,77.7,29.88,ENE,68,8.2,8.2,68,0.00,,---,0.00,VWS V13.01,2013-10-12 16:00:00,
2013-10-12 12:01:00,89.7,77.7,29.88,ENE,68,10.2,10.2,68,0.00,,---,0.00,VWS V13.01,2013-10-12 16:01:00,
2013-10-12 12:02:00,89.7,77.7,29.89,ENE,68,4.4,4.4,68,0.00,,---,0.00,VWS V13.01,2013-10-12 16:02:00,
2013-10-12 12:05:00,89.9,77.9,29.88,East,90,6.7,6.7,68,0.00,,---,0.00,VWS V13.01,2013-10-12 16:05:00,
2013-10-12 12:06:00,89.9,77.9,29.88,NE,45,9.8,9.8,68,0.00,,---,0.00,VWS V13.01,2013-10-12 16:06:00,
2013-10-12 12:07:00,89.9,77.9,29.88,ENE,68,9.6,9.6,68,0.00,,---,0.00,VWS V13.01,2013-10-12 16:07:00,
2013-10-12 12:10:00,90.1,77.7,29.88,East,90,7.1,7.1,67,0.00,,---,0.00,VWS V13.01,2013-10-12 16:10:00,
2013-10-12 12:11:00,90.1,77.7,29.88,ENE,68,8.0,8.0,67,0.00,,---,0.00,VWS V13.01,2013-10-12 16:11:00,
2013-10-12 12:12:00,90.1,77.7,29.88,ESE,112,5.1,5.1,67,0.00,,---,0.00,VWS V13.01,2013-10-12 16:12:00,
2013-10-12 12:13:00,90.1,77.7,29.88,ENE,68,3.5,3.5,67,0.00,,---,0.00,VWS V13.01,2013-10-12 16:13:00,
2013-10-12 12:15:00,90.3,78.3,29.88,ESE,112,8.0,8.0,68,0.00,,---,0.00,VWS V13.01,2013-10-12 16:15:00,
2013-10-12 12:16:00,90.3,78.3,29.88,ENE,68,8.0,8.0,68,0.00,,---,0.00,VWS V13.01,2013-10-12 16:16:00,
2013-10-12 12:17:00,90.5,78.5,29.88,SSE,158,7.8,7.8,68,0.00,,---,0.00,VWS V13.01,2013-10-12 16:17:00,
2013-10-12 12:18:00,90.5,78.5,29.88,ENE,68,1.5,1.5,68,0.00,,---,0.00,VWS V13.01,2013-10-12 16:18:00,
2013-10-12 12:20:00,90.6,78.1,29.88,ENE,68,3.5,3.5,67,0.00,,---,0.00,VWS V13.01,2013-10-12 16:20:00,
2013-10-12 12:21:00,90.6,78.1,29.88,ENE,68,3.5,3.5,67,0.00,,---,0.00,VWS V13.01,2013-10-12 16:21:00,
2013-10-12 12:22:00,90.6,78.1,29.87,NNW,338,5.8,5.8,67,0.00,,---,0.00,VWS V13.01,2013-10-12 16:22:00,
2013-10-12 12:23:00,90.8,78.3,29.87,East,90,9.8,9.8,67,0.00,,---,0.00,VWS V13.01,2013-10-12 16:23:00,
2013-10-12 12:25:00,91.0,78.5,29.87,ENE,68,12.3,12.3,67,0.00,,---,0.00,VWS V13.01,2013-10-12 16:25:00,
2013-10-12 12:26:00,91.0,78.5,29.87,ENE,68,12.3,12.3,67,0.00,,---,0.00,VWS V13.01,2013-10-12 16:26:00,
2013-10-12 12:27:00,91.0,78.5,29.87,East,90,5.3,5.3,67,0.00,,---,0.00,VWS V13.01,2013-10-12 16:27:00,
2013-10-12 12:28:00,91.0,78.1,29.87,East,90,11.4,11.4,66,0.00,,---,0.00,VWS V13.01,2013-10-12 16:28:00,
2013-10-12 12:31:00,91.0,78.1,29.87,East,90,6.2,6.2,66,0.00,,---,0.00,VWS V13.01,2013-10-12 16:31:00,
2013-10-12 12:32:00,91.0,78.1,29.87,ENE,68,7.8,7.8,66,0.00,,---,0.00,VWS V13.01,2013-10-12 16:32:00,
2013-10-12 12:33:00,91.2,78.3,29.87,ENE,68,10.2,10.2,66,0.00,,---,0.00,VWS V13.01,2013-10-12 16:33:00,
2013-10-12 12:36:00,91.2,78.3,29.87,NE,45,12.0,12.0,66,0.00,,---,0.00,VWS V13.01,2013-10-12 16:36:00,
2013-10-12 12:37:00,91.2,77.8,29.87,ENE,68,4.4,4.4,65,0.00,,---,0.00,VWS V13.01,2013-10-12 16:37:00,
2013-10-12 12:38:00,91.2,78.3,29.87,NE,45,8.5,8.5,66,0.00,,---,0.00,VWS V13.01,2013-10-12 16:38:00,
2013-10-12 12:41:00,91.2,78.3,29.87,NE,45,3.5,3.5,66,0.00,,---,0.00,VWS V13.01,2013-10-12 16:41:00,
2013-10-12 12:42:00,91.2,78.3,29.87,East,90,5.5,5.5,66,0.00,,---,0.00,VWS V13.01,2013-10-12 16:42:00,
2013-10-12 12:43:00,91.4,78.4,29.87,NE,45,4.0,4.0,66,0.00,,---,0.00,VWS V13.01,2013-10-12 16:43:00,
2013-10-12 12:44:00,91.2,78.3,29.87,East,90,6.2,6.2,66,0.00,,---,0.00,VWS V13.01,2013-10-12 16:44:00,
2013-10-12 12:46:00,91.4,78.4,29.87,East,90,3.5,3.5,66,0.00,,---,0.00,VWS V13.01,2013-10-12 16:46:00,
2013-10-12 12:47:00,91.4,78.4,29.87,ENE,68,9.6,9.6,66,0.00,,---,0.00,VWS V13.01,2013-10-12 16:47:00,
2013-10-12 12:48:00,91.4,78.0,29.87,East,90,8.7,8.7,65,0.00,,---,0.00,VWS V13.01,2013-10-12 16:48:00,
2013-10-12 12:49:00,91.2,77.8,29.86,ENE,68,1.5,1.5,65,0.00,,---,0.00,VWS V13.01,2013-10-12 16:49:00,
2013-10-12 12:51:00,91.0,78.1,29.87,East,90,6.0,6.0,66,0.00,,---,0.00,VWS V13.01,2013-10-12 16:51:00,
2013-10-12 12:52:00,91.0,78.1,29.86,ENE,68,4.2,4.2,66,0.00,,---,0.00,VWS V13.01,2013-10-12 16:52:00,
2013-10-12 12:53:00,90.6,77.7,29.86,ENE,68,8.5,8.5,66,0.00,,---,0.00,VWS V13.01,2013-10-12 16:53:00,
2013-10-12 12:54:00,90.5,77.6,29.86,ENE,68,6.7,6.7,66,0.00,,---,0.00,VWS V13.01,2013-10-12 16:54:00,
2013-10-12 12:56:00,90.1,77.2,29.86,East,90,7.1,7.1,66,0.00,,---,0.00,VWS V13.01,2013-10-12 16:56:00,
2013-10-12 12:57:00,90.1,77.2,29.86,NE,45,5.5,5.5,66,0.00,,---,0.00,VWS V13.01,2013-10-12 16:57:00,
2013-10-12 12:58:00,89.7,76.8,29.86,ENE,68,3.3,3.3,66,0.00,,---,0.00,VWS V13.01,2013-10-12 16:58:00,
2013-10-12 12:59:00,89.7,76.8,29.86,ENE,68,5.5,5.5,66,0.00,,---,0.00,VWS V13.01,2013-10-12 16:59:00,
2013-10-12 13:01:00,89.4,76.6,29.87,ENE,68,6.0,6.0,66,0.00,,---,0.00,VWS V13.01,2013-10-12 17:01:00,
2013-10-12 13:02:00,89.4,76.6,29.87,ENE,68,3.1,3.1,66,0.00,,---,0.00,VWS V13.01,2013-10-12 17:02:00,
2013-10-12 13:03:00,89.2,76.8,29.87,ESE,112,4.6,4.6,67,0.00,,---,0.00,VWS V13.01,2013-10-12 17:03:00,
2013-10-12 13:04:00,89.2,76.8,29.86,ENE,68,1.3,1.3,67,0.00,,---,0.00,VWS V13.01,2013-10-12 17:04:00,
2013-10-12 13:06:00,88.8,76.4,29.86,East,90,0.0,0.0,67,0.00,,---,0.00,VWS V13.01,2013-10-12 17:06:00,
2013-10-12 13:07:00,88.8,76.4,29.87,ESE,112,0.0,0.0,67,0.00,,---,0.00,VWS V13.01,2013-10-12 17:07:00,
2013-10-12 13:08:00,88.7,76.3,29.87,NNW,338,0.0,0.0,67,0.00,,---,0.00,VWS V13.01,2013-10-12 17:08:00,
2013-10-12 13:09:00,88.7,76.3,29.87,WSW,248,0.0,0.0,67,0.00,,---,0.00,VWS V13.01,2013-10-12 17:09:00,
2013-10-12 13:11:00,88.3,76.4,29.86,WNW,292,1.7,1.7,68,0.00,,---,0.00,VWS V13.01,2013-10-12 17:11:00,
2013-10-12 13:12:00,88.3,76.4,29.86,West,270,1.3,1.3,68,0.00,,---,0.00,VWS V13.01,2013-10-12 17:12:00,
2013-10-12 13:13:00,88.1,76.2,29.86,West,270,2.2,2.2,68,0.00,,---,0.00,VWS V13.01,2013-10-12 17:13:00,
2013-10-12 13:14:00,87.8,75.9,29.86,NW,315,0.0,0.0,68,0.00,,---,0.00,VWS V13.01,2013-10-12 17:14:00,
2013-10-12 13:16:00,87.4,75.6,29.86,SSE,158,3.8,3.8,68,0.00,,---,0.00,VWS V13.01,2013-10-12 17:16:00,
2013-10-12 13:17:00,87.4,75.6,29.86,SSE,158,3.8,3.8,68,0.00,,---,0.00,VWS V13.01,2013-10-12 17:17:00,
2013-10-12 13:18:00,87.0,75.6,29.86,SW,225,1.7,1.7,69,0.00,,---,0.00,VWS V13.01,2013-10-12 17:18:00,
2013-10-12 13:19:00,86.9,75.5,29.86,NW,315,0.0,0.0,69,0.00,,---,0.00,VWS V13.01,2013-10-12 17:19:00,
2013-10-12 13:22:00,86.5,75.1,29.86,North,0,1.3,1.3,69,0.00,,---,0.00,VWS V13.01,2013-10-12 17:22:00,
2013-10-12 13:23:00,86.3,74.9,29.86,WNW,292,4.4,4.4,69,0.00,,---,0.00,VWS V13.01,2013-10-12 17:23:00,
2013-10-12 13:24:00,86.1,74.8,29.87,NW,315,3.5,3.5,69,0.00,,---,0.00,VWS V13.01,2013-10-12 17:24:00,
2013-10-12 13:27:00,85.8,74.9,29.87,WSW,248,0.0,0.0,70,0.00,,---,0.00,VWS V13.01,2013-10-12 17:27:00,
2013-10-12 13:28:00,85.6,74.7,29.87,WSW,248,1.7,1.7,70,0.00,,---,0.00,VWS V13.01,2013-10-12 17:28:00,
2013-10-12 13:29:00,85.6,75.1,29.87,North,0,0.0,0.0,71,0.00,,---,0.00,VWS V13.01,2013-10-12 17:29:00,
2013-10-12 13:32:00,85.2,74.7,29.86,WNW,292,7.6,7.6,71,0.00,,---,0.00,VWS V13.01,2013-10-12 17:32:00,
2013-10-12 13:33:00,85.2,75.2,29.86,South,180,5.3,5.3,72,0.00,,---,0.00,VWS V13.01,2013-10-12 17:33:00,
2013-10-12 13:35:00,85.1,75.1,29.87,SSW,202,10.7,10.7,72,0.00,,---,0.00,VWS V13.01,2013-10-12 17:35:00,
2013-10-12 13:37:00,84.9,74.9,29.87,SSW,202,2.0,2.0,72,0.00,,---,0.00,VWS V13.01,2013-10-12 17:37:00,
2013-10-12 13:38:00,84.9,74.9,29.87,West,270,4.6,4.6,72,0.00,,---,0.00,VWS V13.01,2013-10-12 17:38:00,
2013-10-12 13:40:00,84.7,75.1,29.86,South,180,8.0,8.0,73,0.00,,---,0.00,VWS V13.01,2013-10-12 17:40:00,
2013-10-12 13:42:00,84.5,75.3,29.86,WSW,248,6.0,6.0,74,0.02,,---,0.02,VWS V13.01,2013-10-12 17:42:00,
2013-10-12 13:43:00,84.3,75.1,29.86,South,180,1.3,1.3,74,0.06,,---,0.06,VWS V13.01,2013-10-12 17:43:00,
2013-10-12 13:45:00,84.0,75.2,29.86,SSE,158,11.1,11.1,75,0.12,,---,0.12,VWS V13.01,2013-10-12 17:45:00,
2013-10-12 13:47:00,83.3,74.9,29.87,SW,225,6.2,6.2,76,0.14,,---,0.14,VWS V13.01,2013-10-12 17:47:00,
2013-10-12 13:48:00,83.1,74.8,29.87,WSW,248,2.4,2.4,76,0.14,,---,0.14,VWS V13.01,2013-10-12 17:48:00,
2013-10-12 13:50:00,82.7,74.4,29.86,West,270,2.9,2.9,76,0.14,,---,0.14,VWS V13.01,2013-10-12 17:50:00,
2013-10-12 13:52:00,82.2,73.9,29.86,SW,225,4.6,4.6,76,0.16,,---,0.16,VWS V13.01,2013-10-12 17:52:00,
2013-10-12 13:53:00,82.2,73.9,29.86,SW,225,4.6,4.6,76,0.16,,---,0.16,VWS V13.01,2013-10-12 17:53:00,
2013-10-12 13:55:00,82.2,74.3,29.86,SSE,158,4.0,4.0,77,0.16,,---,0.16,VWS V13.01,2013-10-12 17:55:00,
2013-10-12 13:57:00,82.0,74.1,29.85,NW,315,0.0,0.0,77,0.16,,---,0.16,VWS V13.01,2013-10-12 17:57:00,
2013-10-12 13:58:00,82.0,74.1,29.85,NW,315,0.0,0.0,77,0.16,,---,0.16,VWS V13.01,2013-10-12 17:58:00,
2013-10-12 14:00:00,82.0,74.1,29.85,SSE,158,0.0,0.0,77,0.16,,---,0.16,VWS V13.01,2013-10-12 18:00:00,
2013-10-12 14:02:00,82.2,74.7,29.85,SW,225,0.0,0.0,78,0.16,,---,0.16,VWS V13.01,2013-10-12 18:02:00,
2013-10-12 14:03:00,82.2,74.7,29.85,SW,225,0.0,0.0,78,0.16,,---,0.16,VWS V13.01,2013-10-12 18:03:00,
2013-10-12 14:05:00,82.2,74.7,29.85,West,270,0.0,0.0,78,0.16,,---,0.16,VWS V13.01,2013-10-12 18:05:00,
2013-10-12 14:08:00,82.2,74.3,29.85,West,270,0.0,0.0,77,0.16,,---,0.16,VWS V13.01,2013-10-12 18:08:00,
2013-10-12 14:09:00,82.2,74.3,29.85,West,270,0.0,0.0,77,0.16,,---,0.16,VWS V13.01,2013-10-12 18:09:00,
2013-10-12 14:10:00,82.5,74.6,29.85,WSW,248,0.0,0.0,77,0.16,,---,0.16,VWS V13.01,2013-10-12 18:10:00,
2013-10-12 14:11:00,82.5,74.6,29.85,WSW,248,0.0,0.0,77,0.16,,---,0.16,VWS V13.01,2013-10-12 18:11:00,
2013-10-12 14:13:00,82.5,74.6,29.85,WSW,248,0.0,0.0,77,0.16,,---,0.16,VWS V13.01,2013-10-12 18:13:00,
2013-10-12 14:14:00,82.5,74.9,29.85,WSW,248,0.0,0.0,78,0.16,,---,0.16,VWS V13.01,2013-10-12 18:14:00,
2013-10-12 14:15:00,82.7,75.2,29.85,WSW,248,0.0,0.0,78,0.16,,---,0.16,VWS V13.01,2013-10-12 18:15:00,
2013-10-12 14:16:00,82.7,75.2,29.85,WSW,248,0.0,0.0,78,0.16,,---,0.16,VWS V13.01,2013-10-12 18:16:00,
2013-10-12 14:18:00,82.9,74.9,29.85,SW,225,0.0,0.0,77,0.16,,---,0.16,VWS V13.01,2013-10-12 18:18:00,
2013-10-12 14:19:00,82.9,74.9,29.84,SSE,158,0.0,0.0,77,0.16,,---,0.16,VWS V13.01,2013-10-12 18:19:00,
2013-10-12 14:21:00,82.9,74.9,29.84,South,180,2.2,2.2,77,0.16,,---,0.16,VWS V13.01,2013-10-12 18:21:00,
2013-10-12 14:23:00,82.9,75.3,29.84,South,180,5.3,5.3,78,0.16,,---,0.16,VWS V13.01,2013-10-12 18:23:00,
2013-10-12 14:24:00,83.1,75.5,29.85,South,180,3.3,3.3,78,0.16,,---,0.16,VWS V13.01,2013-10-12 18:24:00,
2013-10-12 14:26:00,83.1,75.5,29.85,SSE,158,1.1,1.1,78,0.16,,---,0.16,VWS V13.01,2013-10-12 18:26:00,
2013-10-12 14:28:00,83.1,75.5,29.85,South,180,5.8,5.8,78,0.16,,---,0.16,VWS V13.01,2013-10-12 18:28:00,
2013-10-12 14:29:00,83.1,75.5,29.85,South,180,3.5,3.5,78,0.16,,---,0.16,VWS V13.01,2013-10-12 18:29:00,
2013-10-12 14:31:00,83.3,76.1,29.85,South,180,0.0,0.0,79,0.16,,---,0.16,VWS V13.01,2013-10-12 18:31:00,
2013-10-12 14:33:00,83.3,76.1,29.85,SSE,158,2.2,2.2,79,0.16,,---,0.16,VWS V13.01,2013-10-12 18:33:00,
2013-10-12 14:34:00,83.3,76.1,29.85,South,180,3.8,3.8,79,0.16,,---,0.16,VWS V13.01,2013-10-12 18:34:00,
2013-10-12 14:36:00,83.4,76.2,29.84,SSE,158,3.8,3.8,79,0.16,,---,0.16,VWS V13.01,2013-10-12 18:36:00,
2013-10-12 14:38:00,83.4,76.2,29.85,South,180,1.7,1.7,79,0.14,,---,0.16,VWS V13.01,2013-10-12 18:38:00,
2013-10-12 14:39:00,83.4,76.2,29.85,SSE,158,6.0,6.0,79,0.14,,---,0.16,VWS V13.01,2013-10-12 18:39:00,
2013-10-12 14:41:00,83.4,76.2,29.85,East,90,4.4,4.4,79,0.14,,---,0.16,VWS V13.01,2013-10-12 18:41:00,
2013-10-12 14:43:00,83.4,76.2,29.85,South,180,5.5,5.5,79,0.04,,---,0.16,VWS V13.01,2013-10-12 18:43:00,
2013-10-12 14:44:00,83.4,76.2,29.85,South,180,4.6,4.6,79,0.04,,---,0.16,VWS V13.01,2013-10-12 18:44:00,
2013-10-12 14:46:00,83.3,75.7,29.85,SSE,158,6.0,6.0,78,0.02,,---,0.16,VWS V13.01,2013-10-12 18:46:00,
2013-10-12 14:47:00,83.3,75.7,29.85,SSE,158,4.6,4.6,78,0.02,,---,0.16,VWS V13.01,2013-10-12 18:47:00,
2013-10-12 14:48:00,83.1,75.5,29.85,SSW,202,5.5,5.5,78,0.02,,---,0.16,VWS V13.01,2013-10-12 18:48:00,
2013-10-12 14:49:00,83.1,75.5,29.85,SSE,158,5.5,5.5,78,0.02,,---,0.16,VWS V13.01,2013-10-12 18:49:00,
2013-10-12 14:51:00,82.9,75.3,29.84,South,180,3.1,3.1,78,0.02,,---,0.18,VWS V13.01,2013-10-12 18:51:00,
2013-10-12 14:52:00,82.7,75.2,29.84,SSE,158,2.9,2.9,78,0.02,,---,0.18,VWS V13.01,2013-10-12 18:52:00,
2013-10-12 14:53:00,82.7,75.5,29.84,South,180,3.8,3.8,79,0.02,,---,0.18,VWS V13.01,2013-10-12 18:53:00,
2013-10-12 14:54:00,82.5,75.3,29.84,South,180,5.3,5.3,79,0.04,,---,0.20,VWS V13.01,2013-10-12 18:54:00,
2013-10-12 14:55:00,82.5,75.3,29.85,South,180,1.5,1.5,79,0.08,,---,0.24,VWS V13.01,2013-10-12 18:55:00,
2013-10-12 14:56:00,82.4,75.2,29.85,South,180,2.0,2.0,79,0.08,,---,0.24,VWS V13.01,2013-10-12 18:56:00,
2013-10-12 14:57:00,82.2,75.0,29.84,South,180,4.4,4.4,79,0.08,,---,0.24,VWS V13.01,2013-10-12 18:57:00,
2013-10-12 14:58:00,82.2,75.4,29.84,WSW,248,4.4,4.4,80,0.08,,---,0.24,VWS V13.01,2013-10-12 18:58:00,
2013-10-12 14:59:00,82.2,75.4,29.84,SW,225,4.2,4.2,80,0.08,,---,0.24,VWS V13.01,2013-10-12 18:59:00,
2013-10-12 15:00:00,82.2,75.4,29.84,West,270,0.0,0.0,80,0.08,,---,0.24,VWS V13.01,2013-10-12 19:00:00,
2013-10-12 15:01:00,82.0,75.2,29.84,WNW,292,0.0,0.0,80,0.08,,---,0.24,VWS V13.01,2013-10-12 19:01:00,
2013-10-12 15:02:00,82.0,75.2,29.84,WNW,292,0.0,0.0,80,0.08,,---,0.24,VWS V13.01,2013-10-12 19:02:00,
2013-10-12 15:03:00,81.8,75.0,29.84,NW,315,0.0,0.0,80,0.08,,---,0.24,VWS V13.01,2013-10-12 19:03:00,
2013-10-12 15:04:00,81.8,75.0,29.84,WNW,292,0.0,0.0,80,0.08,,---,0.24,VWS V13.01,2013-10-12 19:04:00,
2013-10-12 15:05:00,81.8,75.0,29.84,NNW,338,1.5,1.5,80,0.08,,---,0.24,VWS V13.01,2013-10-12 19:05:00,
2013-10-12 15:06:00,81.6,74.8,29.84,WNW,292,0.0,0.0,80,0.08,,---,0.24,VWS V13.01,2013-10-12 19:06:00,
2013-10-12 15:07:00,81.6,74.8,29.84,WNW,292,0.0,0.0,80,0.08,,---,0.24,VWS V13.01,2013-10-12 19:07:00,
2013-10-12 15:08:00,81.6,74.8,29.84,NW,315,0.8,0.8,80,0.08,,---,0.24,VWS V13.01,2013-10-12 19:08:00,
2013-10-12 15:09:00,81.6,74.8,29.84,NW,315,0.0,0.0,80,0.08,,---,0.24,VWS V13.01,2013-10-12 19:09:00,
2013-10-12 15:10:00,81.6,74.8,29.84,NW,315,0.0,0.0,80,0.08,,---,0.24,VWS V13.01,2013-10-12 19:10:00,
2013-10-12 15:11:00,81.6,74.8,29.84,NNW,338,0.0,0.0,80,0.08,,---,0.24,VWS V13.01,2013-10-12 19:11:00,
2013-10-12 15:12:00,81.6,74.8,29.84,NNW,338,0.0,0.0,80,0.08,,---,0.24,VWS V13.01,2013-10-12 19:12:00,
2013-10-12 15:13:00,81.6,74.8,29.84,NNE,22,0.0,0.0,80,0.08,,---,0.24,VWS V13.01,2013-10-12 19:13:00,
2013-10-12 15:14:00,81.6,74.8,29.84,ESE,112,0.0,0.0,80,0.08,,---,0.24,VWS V13.01,2013-10-12 19:14:00,
2013-10-12 15:15:00,81.6,74.8,29.84,SE,135,0.0,0.0,80,0.08,,---,0.24,VWS V13.01,2013-10-12 19:15:00,
2013-10-12 15:17:00,82.0,75.2,29.84,South,180,0.0,0.0,80,0.08,,---,0.24,VWS V13.01,2013-10-12 19:17:00,
2013-10-12 15:18:00,82.0,75.2,29.84,SSW,202,0.0,0.0,80,0.08,,---,0.24,VWS V13.01,2013-10-12 19:18:00,
2013-10-12 15:19:00,82.0,75.2,29.84,South,180,1.3,1.3,80,0.08,,---,0.24,VWS V13.01,2013-10-12 19:19:00,
2013-10-12 15:20:00,82.2,75.4,29.84,SSE,158,0.0,0.0,80,0.08,,---,0.24,VWS V13.01,2013-10-12 19:20:00,
2013-10-12 15:22:00,82.4,75.6,29.84,SE,135,0.0,0.0,80,0.08,,---,0.24,VWS V13.01,2013-10-12 19:22:00,
2013-10-12 15:23:00,82.5,75.7,29.85,SSE,158,0.0,0.6,80,0.08,,---,0.24,VWS V13.01,2013-10-12 19:23:00,
2013-10-12 15:24:00,82.5,75.7,29.85,SSE,158,0.0,0.0,80,0.08,,---,0.24,VWS V13.01,2013-10-12 19:24:00,
2013-10-12 15:25:00,82.5,75.7,29.84,SSE,158,0.0,0.0,80,0.08,,---,0.24,VWS V13.01,2013-10-12 19:25:00,
2013-10-12 15:27:00,82.7,75.9,29.84,South,180,0.6,0.6,80,0.08,,---,0.24,VWS V13.01,2013-10-12 19:27:00,
2013-10-12 15:28:00,82.9,76.1,29.84,South,180,1.3,1.3,80,0.08,,---,0.24,VWS V13.01,2013-10-12 19:28:00,
2013-10-12 15:29:00,82.9,76.1,29.84,South,180,1.3,1.3,80,0.08,,---,0.24,VWS V13.01,2013-10-12 19:29:00,
2013-10-12 15:30:00,83.1,76.3,29.84,South,180,0.0,0.0,80,0.08,,---,0.24,VWS V13.01,2013-10-12 19:30:00,
2013-10-12 15:32:00,83.1,76.3,29.84,South,180,0.0,0.0,80,0.08,,---,0.24,VWS V13.01,2013-10-12 19:32:00,
2013-10-12 15:33:00,83.1,75.9,29.84,South,180,0.0,0.0,79,0.08,,---,0.24,VWS V13.01,2013-10-12 19:33:00,
2013-10-12 15:34:00,83.1,75.9,29.84,South,180,0.0,0.0,79,0.08,,---,0.24,VWS V13.01,2013-10-12 19:34:00,
2013-10-12 15:35:00,83.4,75.8,29.84,South,180,0.0,0.0,78,0.08,,---,0.24,VWS V13.01,2013-10-12 19:35:00,
2013-10-12 15:37:00,83.4,75.8,29.84,South,180,0.0,0.0,78,0.08,,---,0.24,VWS V13.01,2013-10-12 19:37:00,
2013-10-12 15:38:00,84.0,76.4,29.83,South,180,0.0,0.0,78,0.08,,---,0.24,VWS V13.01,2013-10-12 19:38:00,
2013-10-12 15:39:00,84.0,76.4,29.83,South,180,0.0,0.0,78,0.08,,---,0.24,VWS V13.01,2013-10-12 19:39:00,
2013-10-12 15:40:00,84.2,76.6,29.83,SE,135,0.0,0.0,78,0.08,,---,0.24,VWS V13.01,2013-10-12 19:40:00,
2013-10-12 15:42:00,84.3,76.7,29.83,SE,135,0.0,0.0,78,0.08,,---,0.24,VWS V13.01,2013-10-12 19:42:00,
2013-10-12 15:43:00,84.7,76.7,29.84,SSE,158,0.0,0.0,77,0.08,,---,0.24,VWS V13.01,2013-10-12 19:43:00,
2013-10-12 15:44:00,84.9,76.9,29.84,South,180,0.0,0.0,77,0.08,,---,0.24,VWS V13.01,2013-10-12 19:44:00,
2013-10-12 15:45:00,85.2,76.8,29.83,ESE,112,0.0,0.0,76,0.08,,---,0.24,VWS V13.01,2013-10-12 19:45:00,
2013-10-12 15:47:00,85.6,77.2,29.83,ESE,112,0.0,0.0,76,0.08,,---,0.24,VWS V13.01,2013-10-12 19:47:00,
2013-10-12 15:48:00,85.6,77.2,29.83,SE,135,0.0,0.0,76,0.08,,---,0.24,VWS V13.01,2013-10-12 19:48:00,
2013-10-12 15:49:00,85.8,77.0,29.83,SE,135,0.0,0.0,75,0.08,,---,0.24,VWS V13.01,2013-10-12 19:49:00,
2013-10-12 15:50:00,85.8,77.0,29.84,ESE,112,0.0,0.0,75,0.04,,---,0.24,VWS V13.01,2013-10-12 19:50:00,
2013-10-12 15:51:00,86.1,77.2,29.83,ESE,112,0.0,0.0,75,0.04,,---,0.24,VWS V13.01,2013-10-12 19:51:00,
2013-10-12 15:52:00,86.1,77.2,29.84,ENE,68,0.0,0.0,75,0.04,,---,0.24,VWS V13.01,2013-10-12 19:52:00,
2013-10-12 15:53:00,86.5,77.6,29.84,ESE,112,1.1,1.1,75,0.04,,---,0.24,VWS V13.01,2013-10-12 19:53:00,
2013-10-12 15:54:00,86.5,77.6,29.84,ESE,112,0.0,0.0,75,0.00,,---,0.24,VWS V13.01,2013-10-12 19:54:00,
2013-10-12 15:55:00,86.9,78.0,29.84,SE,135,0.0,0.0,75,0.00,,---,0.24,VWS V13.01,2013-10-12 19:55:00,
2013-10-12 15:56:00,87.0,78.1,29.84,SE,135,0.0,0.0,75,0.00,,---,0.24,VWS V13.01,2013-10-12 19:56:00,
2013-10-12 15:57:00,87.0,78.1,29.84,ENE,68,0.0,0.0,75,0.00,,---,0.24,VWS V13.01,2013-10-12 19:57:00,
2013-10-12 15:58:00,87.0,78.1,29.84,SE,135,0.0,0.0,75,0.00,,---,0.24,VWS V13.01,2013-10-12 19:58:00,
2013-10-12 15:59:00,87.2,78.3,29.84,ENE,68,3.5,3.5,75,0.00,,---,0.24,VWS V13.01,2013-10-12 19:59:00,
2013-10-12 16:00:00,87.4,78.1,29.84,NE,45,1.7,1.7,74,0.00,,---,0.24,VWS V13.01,2013-10-12 20:00:00,
2013-10-12 16:01:00,87.4,78.1,29.84,East,90,0.0,0.0,74,0.00,,---,0.24,VWS V13.01,2013-10-12 20:01:00,
2013-10-12 16:02:00,87.4,78.1,29.84,East,90,0.0,0.0,74,0.00,,---,0.24,VWS V13.01,2013-10-12 20:02:00,
2013-10-12 16:03:00,87.6,77.9,29.84,ESE,112,0.0,0.0,73,0.00,,---,0.24,VWS V13.01,2013-10-12 20:03:00,
2013-10-12 16:04:00,87.6,77.9,29.84,SE,135,0.0,0.0,73,0.00,,---,0.24,VWS V13.01,2013-10-12 20:04:00,
2013-10-12 16:05:00,87.6,77.9,29.84,ENE,68,8.0,8.0,73,0.00,,---,0.24,VWS V13.01,2013-10-12 20:05:00,
2013-10-12 16:06:00,87.4,77.7,29.85,NE,45,1.5,1.5,73,0.00,,---,0.24,VWS V13.01,2013-10-12 20:06:00,
2013-10-12 16:07:00,87.6,77.9,29.85,East,90,4.4,4.4,73,0.00,,---,0.24,VWS V13.01,2013-10-12 20:07:00,
2013-10-12 16:08:00,87.6,77.9,29.85,East,90,2.4,2.4,73,0.00,,---,0.24,VWS V13.01,2013-10-12 20:08:00,
2013-10-12 16:09:00,87.6,77.9,29.85,SE,135,0.0,0.0,73,0.00,,---,0.24,VWS V13.01,2013-10-12 20:09:00,
2013-10-12 16:10:00,87.6,77.9,29.85,ESE,112,0.0,0.0,73,0.00,,---,0.24,VWS V13.01,2013-10-12 20:10:00,
2013-10-12 16:11:00,87.6,77.9,29.85,SE,135,1.5,1.5,73,0.00,,---,0.24,VWS V13.01,2013-10-12 20:11:00,
2013-10-12 16:12:00,87.8,78.1,29.85,ESE,112,4.4,4.4,73,0.00,,---,0.24,VWS V13.01,2013-10-12 20:12:00,
2013-10-12 16:13:00,87.9,78.2,29.85,NE,45,2.4,2.4,73,0.00,,---,0.24,VWS V13.01,2013-10-12 20:13:00,
2013-10-12 16:14:00,87.9,78.2,29.85,ESE,112,0.0,0.0,73,0.00,,---,0.24,VWS V13.01,2013-10-12 20:14:00,
2013-10-12 16:15:00,88.1,78.4,29.85,ESE,112,0.0,0.0,73,0.00,,---,0.24,VWS V13.01,2013-10-12 20:15:00,
2013-10-12 16:16:00,88.3,78.6,29.85,ESE,112,3.1,3.1,73,0.00,,---,0.24,VWS V13.01,2013-10-12 20:16:00,
2013-10-12 16:17:00,88.5,78.3,29.85,East,90,0.8,5.1,72,0.00,,---,0.24,VWS V13.01,2013-10-12 20:17:00,
2013-10-12 16:18:00,88.5,78.3,29.85,ESE,112,0.0,0.0,72,0.00,,---,0.24,VWS V13.01,2013-10-12 20:18:00,
2013-10-12 16:19:00,88.5,78.3,29.85,ESE,112,0.0,0.0,72,0.00,,---,0.24,VWS V13.01,2013-10-12 20:19:00,
2013-10-12 16:20:00,88.5,78.3,29.85,SSE,158,1.5,1.5,72,0.00,,---,0.24,VWS V13.01,2013-10-12 20:20:00,
2013-10-12 16:21:00,88.5,78.3,29.85,East,90,0.0,0.0,72,0.00,,---,0.24,VWS V13.01,2013-10-12 20:21:00,
2013-10-12 16:22:00,88.5,78.3,29.85,ESE,112,1.3,1.3,72,0.00,,---,0.24,VWS V13.01,2013-10-12 20:22:00,
2013-10-12 16:23:00,88.5,78.3,29.85,East,90,2.2,2.2,72,0.00,,---,0.24,VWS V13.01,2013-10-12 20:23:00,
2013-10-12 16:24:00,88.5,78.3,29.85,East,90,2.2,2.2,72,0.00,,---,0.24,VWS V13.01,2013-10-12 20:24:00,
2013-10-12 16:25:00,88.5,78.3,29.85,SSE,158,0.0,0.0,72,0.00,,---,0.24,VWS V13.01,2013-10-12 20:25:00,
2013-10-12 16:26:00,88.5,78.3,29.85,SE,135,0.0,0.0,72,0.00,,---,0.24,VWS V13.01,2013-10-12 20:26:00,
2013-10-12 16:27:00,88.5,78.3,29.85,ENE,68,0.0,0.0,72,0.00,,---,0.24,VWS V13.01,2013-10-12 20:27:00,
2013-10-12 16:29:00,88.5,78.3,29.85,NE,45,2.4,2.4,72,0.00,,---,0.24,VWS V13.01,2013-10-12 20:29:00,
2013-10-12 16:30:00,88.3,78.1,29.85,ENE,68,0.0,0.0,72,0.00,,---,0.24,VWS V13.01,2013-10-12 20:30:00,
2013-10-12 16:31:00,88.3,78.1,29.85,ENE,68,5.3,5.3,72,0.00,,---,0.24,VWS V13.01,2013-10-12 20:31:00,
2013-10-12 16:32:00,88.3,78.1,29.85,South,180,0.0,0.0,72,0.00,,---,0.24,VWS V13.01,2013-10-12 20:32:00,
2013-10-12 16:34:00,88.5,78.3,29.85,ENE,68,0.0,0.0,72,0.00,,---,0.24,VWS V13.01,2013-10-12 20:34:00,
2013-10-12 16:35:00,88.5,78.3,29.85,ENE,68,0.0,0.0,72,0.00,,---,0.24,VWS V13.01,2013-10-12 20:35:00,
2013-10-12 16:36:00,88.7,78.5,29.85,ENE,68,0.0,0.0,72,0.00,,---,0.24,VWS V13.01,2013-10-12 20:36:00,
2013-10-12 16:37:00,88.8,78.2,29.85,ESE,112,0.0,0.0,71,0.00,,---,0.24,VWS V13.01,2013-10-12 20:37:00,
2013-10-12 16:39:00,88.8,78.2,29.85,ESE,112,1.3,1.3,71,0.00,,---,0.24,VWS V13.01,2013-10-12 20:39:00,
2013-10-12 16:40:00,88.8,78.2,29.85,ESE,112,0.0,0.0,71,0.00,,---,0.24,VWS V13.01,2013-10-12 20:40:00,
2013-10-12 16:41:00,89.2,78.6,29.85,East,90,0.0,0.0,71,0.00,,---,0.24,VWS V13.01,2013-10-12 20:41:00,
2013-10-12 16:42:00,89.2,78.6,29.85,East,90,2.2,2.2,71,0.00,,---,0.24,VWS V13.01,2013-10-12 20:42:00,
2013-10-12 16:43:00,89.4,78.8,29.84,ESE,112,0.0,0.0,71,0.00,,---,0.24,VWS V13.01,2013-10-12 20:43:00,
2013-10-12 16:44:00,89.4,78.8,29.85,ESE,112,1.3,1.3,71,0.00,,---,0.24,VWS V13.01,2013-10-12 20:44:00,
2013-10-12 16:45:00,89.4,78.3,29.85,ENE,68,1.7,1.7,70,0.00,,---,0.24,VWS V13.01,2013-10-12 20:45:00,
2013-10-12 16:46:00,89.4,78.3,29.85,ENE,68,2.0,2.0,70,0.00,,---,0.24,VWS V13.01,2013-10-12 20:46:00,
2013-10-12 16:47:00,89.4,78.3,29.85,ENE,68,0.0,0.0,70,0.00,,---,0.24,VWS V13.01,2013-10-12 20:47:00,
2013-10-12 16:48:00,89.6,78.5,29.84,East,90,1.5,1.5,70,0.00,,---,0.24,VWS V13.01,2013-10-12 20:48:00,
2013-10-12 16:49:00,89.7,78.6,29.84,SE,135,0.0,0.0,70,0.00,,---,0.24,VWS V13.01,2013-10-12 20:49:00,
2013-10-12 16:50:00,89.7,78.6,29.84,ENE,68,1.3,1.3,70,0.00,,---,0.24,VWS V13.01,2013-10-12 20:50:00,
2013-10-12 16:51:00,89.7,78.6,29.84,East,90,2.4,2.4,70,0.00,,---,0.24,VWS V13.01,2013-10-12 20:51:00,
2013-10-12 16:52:00,89.7,78.6,29.84,ENE,68,0.0,0.0,70,0.00,,---,0.24,VWS V13.01,2013-10-12 20:52:00,
2013-10-12 16:53:00,89.7,78.6,29.84,East,90,0.0,0.0,70,0.00,,---,0.24,VWS V13.01,2013-10-12 20:53:00,
2013-10-12 16:54:00,89.7,78.6,29.84,SE,135,4.4,4.4,70,0.00,,---,0.24,VWS V13.01,2013-10-12 20:54:00,
2013-10-12 16:55:00,89.7,78.6,29.84,SE,135,0.0,0.0,70,0.00,,---,0.24,VWS V13.01,2013-10-12 20:55:00,
2013-10-12 16:56:00,89.7,78.6,29.84,SSE,158,4.6,4.6,70,0.00,,---,0.24,VWS V13.01,2013-10-12 20:56:00,
2013-10-12 16:57:00,89.7,78.6,29.84,ENE,68,2.2,2.2,70,0.00,,---,0.24,VWS V13.01,2013-10-12 20:57:00,
2013-10-12 16:58:00,89.4,78.3,29.84,ENE,68,0.0,0.0,70,0.00,,---,0.24,VWS V13.01,2013-10-12 20:58:00,
2013-10-12 16:59:00,89.4,78.3,29.84,ENE,68,0.0,0.0,70,0.00,,---,0.24,VWS V13.01,2013-10-12 20:59:00,
2013-10-12 17:00:00,89.4,78.3,29.85,ENE,68,0.0,0.0,70,0.00,,---,0.24,VWS V13.01,2013-10-12 21:00:00,
2013-10-12 17:01:00,89.4,78.8,29.84,ESE,112,0.0,0.0,71,0.00,,---,0.24,VWS V13.01,2013-10-12 21:01:00,
2013-10-12 17:02:00,89.4,78.8,29.84,East,90,0.0,0.0,71,0.00,,---,0.24,VWS V13.01,2013-10-12 21:02:00,
2013-10-12 17:03:00,89.4,78.8,29.84,East,90,0.0,0.0,71,0.00,,---,0.24,VWS V13.01,2013-10-12 21:03:00,
2013-10-12 17:04:00,89.4,78.8,29.84,East,90,0.0,0.0,71,0.00,,---,0.24,VWS V13.01,2013-10-12 21:04:00,
2013-10-12 17:05:00,89.4,78.8,29.84,ESE,112,0.0,0.0,71,0.00,,---,0.24,VWS V13.01,2013-10-12 21:05:00,
2013-10-12 17:06:00,89.2,78.6,29.84,ESE,112,0.0,0.0,71,0.00,,---,0.24,VWS V13.01,2013-10-12 21:06:00,
2013-10-12 17:07:00,89.2,78.6,29.84,ESE,112,0.0,0.0,71,0.00,,---,0.24,VWS V13.01,2013-10-12 21:07:00,
2013-10-12 17:09:00,89.0,78.4,29.84,ESE,112,0.0,0.0,71,0.00,,---,0.24,VWS V13.01,2013-10-12 21:09:00,
2013-10-12 17:10:00,88.8,78.2,29.85,SSE,158,2.6,2.6,71,0.00,,---,0.24,VWS V13.01,2013-10-12 21:10:00,
2013-10-12 17:11:00,88.8,78.2,29.85,SSE,158,2.6,2.6,71,0.00,,---,0.24,VWS V13.01,2013-10-12 21:11:00,
2013-10-12 17:12:00,88.7,78.5,29.85,SSE,158,0.0,0.0,72,0.00,,---,0.24,VWS V13.01,2013-10-12 21:12:00,
2013-10-12 17:14:00,88.5,78.3,29.85,SSE,158,0.0,0.0,72,0.00,,---,0.24,VWS V13.01,2013-10-12 21:14:00,
2013-10-12 17:15:00,88.3,78.1,29.85,SE,135,1.5,1.5,72,0.00,,---,0.24,VWS V13.01,2013-10-12 21:15:00,
2013-10-12 17:16:00,88.3,78.1,29.85,SE,135,1.5,1.5,72,0.00,,---,0.24,VWS V13.01,2013-10-12 21:16:00,
2013-10-12 17:17:00,88.3,78.1,29.85,SSE,158,1.7,1.7,72,0.00,,---,0.24,VWS V13.01,2013-10-12 21:17:00,
2013-10-12 17:19:00,88.1,77.9,29.85,SE,135,0.0,0.0,72,0.00,,---,0.24,VWS V13.01,2013-10-12 21:19:00,
2013-10-12 17:20:00,87.8,77.7,29.85,SE,135,1.1,1.1,72,0.00,,---,0.24,VWS V13.01,2013-10-12 21:20:00,
2013-10-12 17:21:00,87.8,77.7,29.85,SE,135,1.1,1.1,72,0.00,,---,0.24,VWS V13.01,2013-10-12 21:21:00,
2013-10-12 17:23:00,87.6,77.5,29.85,SE,135,0.0,0.0,72,0.00,,---,0.24,VWS V13.01,2013-10-12 21:23:00,
2013-10-12 17:24:00,87.6,77.5,29.85,SE,135,0.0,0.0,72,0.00,,---,0.24,VWS V13.01,2013-10-12 21:24:00,
2013-10-12 17:25:00,87.4,77.7,29.85,SSE,158,0.0,0.0,73,0.00,,---,0.24,VWS V13.01,2013-10-12 21:25:00,
2013-10-12 17:26:00,87.4,77.7,29.85,SSE,158,0.0,0.0,73,0.00,,---,0.24,VWS V13.01,2013-10-12 21:26:00,
2013-10-12 17:28:00,87.2,77.5,29.85,East,90,0.0,0.0,73,0.00,,---,0.24,VWS V13.01,2013-10-12 21:28:00,
2013-10-12 17:29:00,87.0,77.3,29.85,ESE,112,0.0,0.0,73,0.00,,---,0.24,VWS V13.01,2013-10-12 21:29:00,
2013-10-12 17:31:00,87.0,77.3,29.85,SE,135,0.0,0.0,73,0.00,,---,0.24,VWS V13.01,2013-10-12 21:31:00,
2013-10-12 17:33:00,86.9,77.2,29.85,SE,135,0.0,0.0,73,0.00,,---,0.24,VWS V13.01,2013-10-12 21:33:00,
2013-10-12 17:34:00,86.7,77.4,29.85,ESE,112,0.0,0.0,74,0.00,,---,0.24,VWS V13.01,2013-10-12 21:34:00,
2013-10-12 17:36:00,86.7,77.4,29.85,SE,135,0.0,0.0,74,0.00,,---,0.24,VWS V13.01,2013-10-12 21:36:00,
2013-10-12 17:38:00,86.5,77.2,29.85,South,180,2.2,2.2,74,0.00,,---,0.24,VWS V13.01,2013-10-12 21:38:00,
2013-10-12 17:39:00,86.3,77.0,29.85,SSE,158,0.8,0.8,74,0.00,,---,0.24,VWS V13.01,2013-10-12 21:39:00,
2013-10-12 17:41:00,86.3,77.0,29.85,South,180,0.0,0.0,74,0.00,,---,0.24,VWS V13.01,2013-10-12 21:41:00,
2013-10-12 17:43:00,86.1,76.8,29.85,SE,135,0.0,0.0,74,0.00,,---,0.24,VWS V13.01,2013-10-12 21:43:00,
2013-10-12 17:44:00,86.0,77.2,29.85,ESE,112,0.0,0.0,75,0.00,,---,0.24,VWS V13.01,2013-10-12 21:44:00,
2013-10-12 17:46:00,85.8,77.0,29.85,SE,135,3.8,3.8,75,0.00,,---,0.24,VWS V13.01,2013-10-12 21:46:00,
2013-10-12 17:48:00,85.8,77.0,29.85,SSE,158,0.8,0.8,75,0.00,,---,0.24,VWS V13.01,2013-10-12 21:48:00,
2013-10-12 17:49:00,85.6,76.8,29.85,SSE,158,0.0,0.0,75,0.00,,---,0.24,VWS V13.01,2013-10-12 21:49:00,
2013-10-12 17:50:00,85.6,76.8,29.85,SSE,158,0.0,0.0,75,0.00,,---,0.24,VWS V13.01,2013-10-12 21:50:00,
2013-10-12 17:51:00,85.6,76.8,29.85,SSE,158,3.8,3.8,75,0.00,,---,0.24,VWS V13.01,2013-10-12 21:51:00,
2013-10-12 17:53:00,85.6,76.8,29.85,SSE,158,0.0,0.0,75,0.00,,---,0.24,VWS V13.01,2013-10-12 21:53:00,
2013-10-12 17:55:00,85.2,76.4,29.85,SE,135,1.5,1.5,75,0.00,,---,0.24,VWS V13.01,2013-10-12 21:55:00,
2013-10-12 17:56:00,85.2,76.4,29.85,SSE,158,0.0,0.0,75,0.00,,---,0.24,VWS V13.01,2013-10-12 21:56:00,
2013-10-12 17:59:00,85.2,76.4,29.85,South,180,1.3,1.3,75,0.00,,---,0.24,VWS V13.01,2013-10-12 21:59:00,
2013-10-12 18:00:00,85.1,76.7,29.85,SE,135,1.3,1.3,76,0.00,,---,0.24,VWS V13.01,2013-10-12 22:00:00,
2013-10-12 18:01:00,85.1,76.7,29.85,SE,135,4.6,4.6,76,0.00,,---,0.24,VWS V13.01,2013-10-12 22:01:00,
2013-10-12 18:02:00,85.1,76.7,29.85,SE,135,0.0,0.0,76,0.00,,---,0.24,VWS V13.01,2013-10-12 22:02:00,
2013-10-12 18:04:00,84.9,76.5,29.85,SE,135,2.0,2.0,76,0.00,,---,0.24,VWS V13.01,2013-10-12 22:04:00,
2013-10-12 18:05:00,84.9,76.5,29.85,South,180,2.0,2.0,76,0.00,,---,0.24,VWS V13.01,2013-10-12 22:05:00,
2013-10-12 18:06:00,84.9,76.5,29.85,SSE,158,0.0,0.0,76,0.00,,---,0.24,VWS V13.01,2013-10-12 22:06:00,
2013-10-12 18:07:00,84.9,76.5,29.85,SE,135,0.0,0.0,76,0.00,,---,0.24,VWS V13.01,2013-10-12 22:07:00,
2013-10-12 18:09:00,84.7,76.3,29.85,SE,135,1.1,1.1,76,0.00,,---,0.24,VWS V13.01,2013-10-12 22:09:00,
2013-10-12 18:10:00,84.7,76.3,29.85,SSE,158,0.8,0.8,76,0.00,,---,0.24,VWS V13.01,2013-10-12 22:10:00,
2013-10-12 18:11:00,84.7,76.3,29.85,SSE,158,0.0,0.0,76,0.00,,---,0.24,VWS V13.01,2013-10-12 22:11:00,
2013-10-12 18:12:00,84.7,76.3,29.85,South,180,1.3,1.3,76,0.00,,---,0.24,VWS V13.01,2013-10-12 22:12:00,
2013-10-12 18:14:00,84.5,76.1,29.85,SSE,158,1.7,1.7,76,0.00,,---,0.24,VWS V13.01,2013-10-12 22:14:00,
2013-10-12 18:15:00,84.5,76.1,29.86,SE,135,1.7,1.7,76,0.00,,---,0.24,VWS V13.01,2013-10-12 22:15:00,
2013-10-12 18:16:00,84.5,76.1,29.86,SSE,158,0.0,0.0,76,0.00,,---,0.24,VWS V13.01,2013-10-12 22:16:00,
2013-10-12 18:17:00,84.3,75.9,29.86,ESE,112,0.0,0.0,76,0.00,,---,0.24,VWS V13.01,2013-10-12 22:17:00,
2013-10-12 18:19:00,84.3,75.9,29.86,SE,135,0.0,0.0,76,0.00,,---,0.24,VWS V13.01,2013-10-12 22:19:00,
2013-10-12 18:20:00,84.3,75.9,29.86,SSE,158,0.0,0.0,76,0.00,,---,0.24,VWS V13.01,2013-10-12 22:20:00,
2013-10-12 18:21:00,84.3,75.9,29.86,ESE,112,0.0,0.0,76,0.00,,---,0.24,VWS V13.01,2013-10-12 22:21:00,
2013-10-12 18:22:00,84.3,75.9,29.86,SE,135,0.0,0.0,76,0.00,,---,0.24,VWS V13.01,2013-10-12 22:22:00,
2013-10-12 18:24:00,84.2,75.8,29.86,SSE,158,0.6,0.6,76,0.00,,---,0.24,VWS V13.01,2013-10-12 22:24:00,
2013-10-12 18:25:00,84.2,75.8,29.86,SSE,158,0.0,0.0,76,0.00,,---,0.24,VWS V13.01,2013-10-12 22:25:00,
2013-10-12 18:26:00,84.2,75.8,29.86,SE,135,1.3,1.3,76,0.00,,---,0.24,VWS V13.01,2013-10-12 22:26:00,
2013-10-12 18:27:00,84.2,75.8,29.86,SE,135,0.0,0.0,76,0.00,,---,0.24,VWS V13.01,2013-10-12 22:27:00,
2013-10-12 18:29:00,84.2,75.8,29.85,SE,135,0.8,0.8,76,0.00,,---,0.24,VWS V13.01,2013-10-12 22:29:00,
2013-10-12 18:30:00,84.2,75.8,29.85,SE,135,0.8,0.8,76,0.00,,---,0.24,VWS V13.01,2013-10-12 22:30:00,
2013-10-12 18:31:00,84.0,75.6,29.85,SE,135,2.2,2.2,76,0.00,,---,0.24,VWS V13.01,2013-10-12 22:31:00,
2013-10-12 18:32:00,84.0,75.6,29.86,SSE,158,0.6,0.6,76,0.00,,---,0.24,VWS V13.01,2013-10-12 22:32:00,
2013-10-12 18:35:00,84.0,75.6,29.86,SSE,158,0.0,0.0,76,0.00,,---,0.24,VWS V13.01,2013-10-12 22:35:00,
2013-10-12 18:36:00,84.0,75.6,29.86,SE,135,0.0,0.0,76,0.00,,---,0.24,VWS V13.01,2013-10-12 22:36:00,
2013-10-12 18:37:00,84.0,75.6,29.86,SE,135,2.0,2.0,76,0.00,,---,0.24,VWS V13.01,2013-10-12 22:37:00,
2013-10-12 18:40:00,84.0,75.6,29.86,SSE,158,1.3,1.3,76,0.00,,---,0.24,VWS V13.01,2013-10-12 22:40:00,
2013-10-12 18:41:00,84.0,75.6,29.86,SE,135,0.0,0.0,76,0.00,,---,0.24,VWS V13.01,2013-10-12 22:41:00,
2013-10-12 18:42:00,84.0,75.6,29.86,SSE,158,0.0,0.0,76,0.00,,---,0.24,VWS V13.01,2013-10-12 22:42:00,
2013-10-12 18:45:00,84.0,75.6,29.87,SE,135,0.0,0.0,76,0.00,,---,0.24,VWS V13.01,2013-10-12 22:45:00,
2013-10-12 18:46:00,84.0,75.6,29.86,SE,135,1.3,1.3,76,0.00,,---,0.24,VWS V13.01,2013-10-12 22:46:00,
2013-10-12 18:47:00,83.8,75.4,29.86,South,180,0.0,0.0,76,0.00,,---,0.24,VWS V13.01,2013-10-12 22:47:00,
2013-10-12 18:50:00,83.8,75.4,29.87,SSE,158,0.0,0.0,76,0.00,,---,0.24,VWS V13.01,2013-10-12 22:50:00,
2013-10-12 18:51:00,83.8,75.4,29.87,SSE,158,0.0,0.0,76,0.00,,---,0.24,VWS V13.01,2013-10-12 22:51:00,
2013-10-12 18:52:00,83.8,75.4,29.87,South,180,2.0,2.0,76,0.00,,---,0.24,VWS V13.01,2013-10-12 22:52:00,
2013-10-12 18:55:00,83.8,75.4,29.87,SE,135,0.0,0.0,76,0.00,,---,0.24,VWS V13.01,2013-10-12 22:55:00,
2013-10-12 18:56:00,83.8,75.4,29.87,SE,135,0.0,0.0,76,0.00,,---,0.24,VWS V13.01,2013-10-12 22:56:00,
2013-10-12 18:57:00,123.4,99.9,29.87,SSE,158,0.0,0.0,76,0.00,,---,0.24,VWS V13.01,2013-10-12 22:57:00,
2013-10-12 19:00:00,83.8,75.4,29.87,SSE,158,0.0,0.0,76,0.00,,---,0.24,VWS V13.01,2013-10-12 23:00:00,
2013-10-12 19:02:00,83.8,75.4,29.87,SE,135,2.6,2.6,76,0.00,,---,0.24,VWS V13.01,2013-10-12 23:02:00,
2013-10-12 19:05:00,83.8,75.4,29.87,SE,135,0.0,0.0,76,0.00,,---,0.24,VWS V13.01,2013-10-12 23:05:00,
2013-10-12 19:07:00,83.6,75.2,29.87,SE,135,0.0,0.0,76,0.00,,---,0.24,VWS V13.01,2013-10-12 23:07:00,
2013-10-12 19:10:00,83.6,75.2,29.87,SSE,158,0.0,0.0,76,0.00,,---,0.24,VWS V13.01,2013-10-12 23:10:00,
2013-10-12 19:12:00,83.6,75.2,29.87,South,180,2.0,2.0,76,0.00,,---,0.24,VWS V13.01,2013-10-12 23:12:00,
2013-10-12 19:15:00,83.4,75.4,29.87,South,180,0.0,0.0,77,0.00,,---,0.24,VWS V13.01,2013-10-12 23:15:00,
2013-10-12 19:16:00,83.4,75.4,29.87,South,180,0.0,0.0,77,0.00,,---,0.24,VWS V13.01,2013-10-12 23:16:00,
2013-10-12 19:17:00,83.4,75.4,29.87,South,180,2.0,2.0,77,0.00,,---,0.24,VWS V13.01,2013-10-12 23:17:00,
2013-10-12 19:20:00,83.4,75.4,29.87,SE,135,0.0,0.0,77,0.00,,---,0.24,VWS V13.01,2013-10-12 23:20:00,
2013-10-12 19:21:00,83.4,75.4,29.87,South,180,2.2,2.2,77,0.00,,---,0.24,VWS V13.01,2013-10-12 23:21:00,
2013-10-12 19:22:00,83.4,75.4,29.88,SSE,158,0.0,0.0,77,0.00,,---,0.24,VWS V13.01,2013-10-12 23:22:00,
2013-10-12 19:23:00,83.4,75.4,29.87,SSE,158,0.0,0.0,77,0.00,,---,0.24,VWS V13.01,2013-10-12 23:23:00,
2013-10-12 19:25:00,83.4,75.4,29.88,SE,135,0.0,0.0,77,0.00,,---,0.24,VWS V13.01,2013-10-12 23:25:00,
2013-10-12 19:26:00,83.4,75.4,29.88,SE,135,0.0,0.0,77,0.00,,---,0.24,VWS V13.01,2013-10-12 23:26:00,
2013-10-12 19:27:00,83.4,75.4,29.88,SE,135,0.6,0.6,77,0.00,,---,0.24,VWS V13.01,2013-10-12 23:27:00,
2013-10-12 19:28:00,83.4,75.4,29.88,SE,135,1.3,1.3,77,0.00,,---,0.24,VWS V13.01,2013-10-12 23:28:00,
2013-10-12 19:30:00,83.4,75.4,29.88,SE,135,0.0,0.0,77,0.00,,---,0.24,VWS V13.01,2013-10-12 23:30:00,
2013-10-12 19:31:00,83.4,75.8,29.88,South,180,1.1,1.1,78,0.00,,---,0.24,VWS V13.01,2013-10-12 23:31:00,
2013-10-12 19:32:00,83.4,75.8,29.88,ESE,112,1.7,1.7,78,0.00,,---,0.24,VWS V13.01,2013-10-12 23:32:00,
2013-10-12 19:33:00,83.4,75.8,29.88,ESE,112,1.7,1.7,78,0.00,,---,0.24,VWS V13.01,2013-10-12 23:33:00,
2013-10-12 19:35:00,83.3,75.7,29.88,SE,135,2.9,2.9,78,0.00,,---,0.24,VWS V13.01,2013-10-12 23:35:00,
2013-10-12 19:36:00,83.3,75.7,29.88,South,180,3.8,3.8,78,0.00,,---,0.24,VWS V13.01,2013-10-12 23:36:00,
2013-10-12 19:37:00,83.3,75.7,29.88,South,180,2.0,2.0,78,0.00,,---,0.24,VWS V13.01,2013-10-12 23:37:00,
2013-10-12 19:38:00,83.3,75.7,29.88,South,180,2.0,2.0,78,0.00,,---,0.24,VWS V13.01,2013-10-12 23:38:00,
2013-10-12 19:40:00,83.3,75.7,29.88,South,180,0.8,0.8,78,0.00,,---,0.24,VWS V13.01,2013-10-12 23:40:00,
2013-10-12 19:41:00,83.3,75.7,29.88,SSE,158,2.4,2.4,78,0.00,,---,0.24,VWS V13.01,2013-10-12 23:41:00,
2013-10-12 19:42:00,83.3,75.7,29.88,South,180,0.0,3.1,78,0.00,,---,0.24,VWS V13.01,2013-10-12 23:42:00,
2013-10-12 19:43:00,83.3,75.7,29.88,South,180,0.0,0.0,78,0.00,,---,0.24,VWS V13.01,2013-10-12 23:43:00,
2013-10-12 19:45:00,83.1,75.5,29.88,South,180,0.0,0.0,78,0.00,,---,0.24,VWS V13.01,2013-10-12 23:45:00,
2013-10-12 19:46:00,83.1,75.5,29.88,SSE,158,0.0,0.0,78,0.00,,---,0.24,VWS V13.01,2013-10-12 23:46:00,
2013-10-12 19:48:00,83.1,75.9,29.88,SSE,158,0.0,0.0,79,0.00,,---,0.24,VWS V13.01,2013-10-12 23:48:00,
2013-10-12 19:50:00,83.1,75.9,29.89,South,180,0.0,0.0,79,0.00,,---,0.24,VWS V13.01,2013-10-12 23:50:00,
2013-10-12 19:51:00,83.1,75.9,29.89,SSE,158,0.0,0.0,79,0.00,,---,0.24,VWS V13.01,2013-10-12 23:51:00,
2013-10-12 19:53:00,83.1,75.9,29.89,SE,135,0.0,0.0,79,0.00,,---,0.24,VWS V13.01,2013-10-12 23:53:00,
2013-10-12 19:55:00,83.1,75.9,29.89,South,180,0.0,0.0,79,0.00,,---,0.24,VWS V13.01,2013-10-12 23:55:00,
2013-10-12 19:56:00,83.1,75.9,29.89,SSE,158,2.2,2.2,79,0.00,,---,0.24,VWS V13.01,2013-10-12 23:56:00,
2013-10-12 19:58:00,83.1,75.9,29.90,South,180,0.0,0.0,79,0.00,,---,0.24,VWS V13.01,2013-10-12 23:58:00,
2013-10-12 20:00:00,82.9,75.7,29.90,SE,135,0.0,0.0,79,0.00,,---,0.24,VWS V13.01,2013-10-13 00:00:00,
2013-10-12 20:01:00,82.9,75.7,29.90,South,180,0.0,0.0,79,0.00,,---,0.24,VWS V13.01,2013-10-13 00:01:00,
2013-10-12 20:02:00,82.9,75.7,29.90,South,180,0.0,0.0,79,0.00,,---,0.24,VWS V13.01,2013-10-13 00:02:00,
2013-10-12 20:03:00,82.9,75.7,29.90,South,180,0.0,0.0,79,0.00,,---,0.24,VWS V13.01,2013-10-13 00:03:00,
2013-10-12 20:05:00,82.9,75.7,29.90,SE,135,0.0,0.0,79,0.00,,---,0.24,VWS V13.01,2013-10-13 00:05:00,
2013-10-12 20:07:00,82.9,75.7,29.89,SE,135,1.1,1.1,79,0.00,,---,0.24,VWS V13.01,2013-10-13 00:07:00,
2013-10-12 20:08:00,82.9,75.7,29.89,SE,135,0.0,0.0,79,0.00,,---,0.24,VWS V13.01,2013-10-13 00:08:00,
2013-10-12 20:10:00,82.9,75.7,29.89,SSE,158,0.0,0.0,79,0.00,,---,0.24,VWS V13.01,2013-10-13 00:10:00,
2013-10-12 20:12:00,82.9,75.7,29.90,SSE,158,0.0,0.0,79,0.00,,---,0.24,VWS V13.01,2013-10-13 00:12:00,
2013-10-12 20:13:00,82.9,75.7,29.89,SSE,158,0.0,0.0,79,0.00,,---,0.24,VWS V13.01,2013-10-13 00:13:00,
2013-10-12 20:15:00,82.9,75.7,29.90,SE,135,0.0,0.0,79,0.00,,---,0.24,VWS V13.01,2013-10-13 00:15:00,
2013-10-12 20:17:00,82.9,75.7,29.90,SE,135,0.0,0.0,79,0.00,,---,0.24,VWS V13.01,2013-10-13 00:17:00,
2013-10-12 20:18:00,82.9,75.7,29.90,SE,135,0.0,0.0,79,0.00,,---,0.24,VWS V13.01,2013-10-13 00:18:00,
2013-10-12 20:20:00,82.9,75.7,29.90,SE,135,0.0,0.0,79,0.00,,---,0.24,VWS V13.01,2013-10-13 00:20:00,
2013-10-12 20:22:00,82.9,75.7,29.90,SE,135,0.0,0.0,79,0.00,,---,0.24,VWS V13.01,2013-10-13 00:22:00,
2013-10-12 20:23:00,82.9,75.7,29.90,SE,135,0.0,0.0,79,0.00,,---,0.24,VWS V13.01,2013-10-13 00:23:00,
2013-10-12 20:24:00,82.9,75.7,29.90,SSE,158,0.0,0.0,79,0.00,,---,0.24,VWS V13.01,2013-10-13 00:24:00,
2013-10-12 20:25:00,82.9,75.7,29.90,South,180,0.0,0.0,79,0.00,,---,0.24,VWS V13.01,2013-10-13 00:25:00,
2013-10-12 20:27:00,82.7,75.5,29.90,SE,135,0.0,0.0,79,0.00,,---,0.24,VWS V13.01,2013-10-13 00:27:00,
2013-10-12 20:28:00,82.7,75.5,29.90,SE,135,0.0,0.0,79,0.00,,---,0.24,VWS V13.01,2013-10-13 00:28:00,
2013-10-12 20:29:00,82.9,75.7,29.90,SSE,158,1.5,1.5,79,0.00,,---,0.24,VWS V13.01,2013-10-13 00:29:00,
2013-10-12 20:30:00,82.7,75.5,29.90,ESE,112,1.1,1.1,79,0.00,,---,0.24,VWS V13.01,2013-10-13 00:30:00,
2013-10-12 20:32:00,82.7,75.5,29.90,SSE,158,1.5,1.5,79,0.00,,---,0.24,VWS V13.01,2013-10-13 00:32:00,
2013-10-12 20:33:00,82.7,75.5,29.90,SSE,158,1.5,1.5,79,0.00,,---,0.24,VWS V13.01,2013-10-13 00:33:00,
2013-10-12 20:34:00,82.7,75.5,29.90,SSE,158,1.1,1.1,79,0.00,,---,0.24,VWS V13.01,2013-10-13 00:34:00,
2013-10-12 20:35:00,82.7,75.5,29.90,South,180,0.0,0.0,79,0.00,,---,0.24,VWS V13.01,2013-10-13 00:35:00,
2013-10-12 20:38:00,82.7,75.5,29.90,SSE,158,0.0,0.0,79,0.00,,---,0.24,VWS V13.01,2013-10-13 00:38:00,
2013-10-12 20:39:00,82.7,75.5,29.90,SE,135,0.0,0.0,79,0.00,,---,0.24,VWS V13.01,2013-10-13 00:39:00,
2013-10-12 20:40:00,82.7,75.5,29.91,SSE,158,0.0,0.0,79,0.00,,---,0.24,VWS V13.01,2013-10-13 00:40:00,
2013-10-12 20:43:00,82.7,75.5,29.90,SE,135,0.0,0.0,79,0.00,,---,0.24,VWS V13.01,2013-10-13 00:43:00,
2013-10-12 20:44:00,82.7,75.5,29.90,SE,135,1.3,1.3,79,0.00,,---,0.24,VWS V13.01,2013-10-13 00:44:00,
2013-10-12 20:45:00,82.7,75.5,29.90,SSE,158,0.0,0.0,79,0.00,,---,0.24,VWS V13.01,2013-10-13 00:45:00,
2013-10-12 20:48:00,82.7,75.5,29.90,SSE,158,1.3,1.3,79,0.00,,---,0.24,VWS V13.01,2013-10-13 00:48:00,
2013-10-12 20:49:00,82.5,75.3,29.91,North,0,0.0,0.0,79,0.00,,---,0.24,VWS V13.01,2013-10-13 00:49:00,
2013-10-12 20:50:00,82.5,75.3,29.90,South,180,3.5,3.5,79,0.00,,---,0.24,VWS V13.01,2013-10-13 00:50:00,
2013-10-12 20:53:00,82.5,75.3,29.91,SSE,158,0.0,0.0,79,0.00,,---,0.24,VWS V13.01,2013-10-13 00:53:00,
2013-10-12 20:54:00,82.5,75.3,29.90,South,180,0.6,0.6,79,0.00,,---,0.24,VWS V13.01,2013-10-13 00:54:00,
2013-10-12 20:56:00,82.5,75.3,29.91,SSE,158,0.0,0.0,79,0.00,,---,0.24,VWS V13.01,2013-10-13 00:56:00,
2013-10-12 20:58:00,82.5,75.3,29.91,South,180,2.2,2.2,79,0.00,,---,0.24,VWS V13.01,2013-10-13 00:58:00,
2013-10-12 21:00:00,82.5,75.3,29.91,SSE,158,0.0,0.0,79,0.00,,---,0.24,VWS V13.01,2013-10-13 01:00:00,
2013-10-12 21:01:00,82.5,75.3,29.90,South,180,0.0,0.0,79,0.00,,---,0.24,VWS V13.01,2013-10-13 01:01:00,
2013-10-12 21:03:00,82.5,75.3,29.90,SE,135,0.0,0.0,79,0.00,,---,0.24,VWS V13.01,2013-10-13 01:03:00,
2013-10-12 21:05:00,82.5,75.3,29.90,SE,135,2.2,2.2,79,0.00,,---,0.24,VWS V13.01,2013-10-13 01:05:00,
2013-10-12 21:06:00,82.5,75.3,29.90,SSE,158,1.1,1.1,79,0.00,,---,0.24,VWS V13.01,2013-10-13 01:06:00,
2013-10-12 21:08:00,82.5,75.3,29.90,SE,135,1.3,1.3,79,0.00,,---,0.24,VWS V13.01,2013-10-13 01:08:00,
2013-10-12 21:10:00,82.4,75.2,29.90,SSE,158,0.0,0.0,79,0.00,,---,0.24,VWS V13.01,2013-10-13 01:10:00,
2013-10-12 21:11:00,82.4,75.2,29.90,South,180,0.0,0.0,79,0.00,,---,0.24,VWS V13.01,2013-10-13 01:11:00,
2013-10-12 21:13:00,82.5,75.3,29.90,ESE,112,0.0,0.0,79,0.00,,---,0.24,VWS V13.01,2013-10-13 01:13:00,
2013-10-12 21:15:00,82.4,75.2,29.90,South,180,0.0,0.0,79,0.00,,---,0.24,VWS V13.01,2013-10-13 01:15:00,
2013-10-12 21:16:00,82.4,75.2,29.90,South,180,2.0,2.0,79,0.00,,---,0.24,VWS V13.01,2013-10-13 01:16:00,
2013-10-12 21:18:00,82.2,75.0,29.91,SSE,158,0.0,0.0,79,0.00,,---,0.24,VWS V13.01,2013-10-13 01:18:00,
2013-10-12 21:20:00,82.2,75.0,29.91,South,180,2.4,2.4,79,0.00,,---,0.24,VWS V13.01,2013-10-13 01:20:00,
2013-10-12 21:21:00,82.2,75.0,29.91,South,180,4.0,4.0,79,0.00,,---,0.24,VWS V13.01,2013-10-13 01:21:00,
2013-10-12 21:23:00,82.2,75.0,29.91,South,180,0.0,0.0,79,0.00,,---,0.24,VWS V13.01,2013-10-13 01:23:00,
2013-10-12 21:24:00,82.2,75.0,29.91,SE,135,0.0,0.0,79,0.00,,---,0.24,VWS V13.01,2013-10-13 01:24:00,
2013-10-12 21:25:00,82.2,75.0,29.91,SSE,158,0.6,0.6,79,0.00,,---,0.24,VWS V13.01,2013-10-13 01:25:00,
2013-10-12 21:26:00,82.2,75.0,29.90,SSE,158,1.5,1.5,79,0.00,,---,0.24,VWS V13.01,2013-10-13 01:26:00,
2013-10-12 21:28:00,82.2,75.0,29.91,SSE,158,2.0,2.0,79,0.00,,---,0.24,VWS V13.01,2013-10-13 01:28:00,
2013-10-12 21:30:00,82.2,75.0,29.90,SSE,158,2.2,2.2,79,0.00,,---,0.24,VWS V13.01,2013-10-13 01:30:00,
2013-10-12 21:31:00,82.2,75.0,29.90,South,180,1.1,1.1,79,0.00,,---,0.24,VWS V13.01,2013-10-13 01:31:00,
2013-10-12 21:33:00,82.2,75.0,29.90,SE,135,0.0,0.0,79,0.00,,---,0.24,VWS V13.01,2013-10-13 01:33:00,
2013-10-12 21:34:00,82.2,75.0,29.90,SSE,158,1.5,1.5,79,0.00,,---,0.24,VWS V13.01,2013-10-13 01:34:00,
2013-10-12 21:35:00,82.2,75.0,29.90,SE,135,0.6,0.6,79,0.00,,---,0.24,VWS V13.01,2013-10-13 01:35:00,
2013-10-12 21:36:00,82.2,75.0,29.90,SSE,158,0.0,0.0,79,0.00,,---,0.24,VWS V13.01,2013-10-13 01:36:00,
2013-10-12 21:38:00,82.0,74.8,29.90,SE,135,4.0,4.0,79,0.00,,---,0.24,VWS V13.01,2013-10-13 01:38:00,
2013-10-12 21:39:00,82.0,74.8,29.90,SE,135,4.0,4.0,79,0.00,,---,0.24,VWS V13.01,2013-10-13 01:39:00,
2013-10-12 21:41:00,82.0,74.8,29.90,SSE,158,0.0,0.0,79,0.00,,---,0.24,VWS V13.01,2013-10-13 01:41:00,
2013-10-12 21:43:00,82.0,75.2,29.90,South,180,2.0,2.0,80,0.00,,---,0.24,VWS V13.01,2013-10-13 01:43:00,
2013-10-12 21:44:00,82.0,75.2,29.90,South,180,1.5,1.5,80,0.00,,---,0.24,VWS V13.01,2013-10-13 01:44:00,
2013-10-12 21:46:00,82.0,75.2,29.90,SE,135,1.5,1.5,80,0.00,,---,0.24,VWS V13.01,2013-10-13 01:46:00,
2013-10-12 21:48:00,82.0,75.2,29.90,South,180,0.0,0.0,80,0.00,,---,0.24,VWS V13.01,2013-10-13 01:48:00,
2013-10-12 21:49:00,82.0,75.2,29.90,South,180,0.0,0.0,80,0.00,,---,0.24,VWS V13.01,2013-10-13 01:49:00,
2013-10-12 21:51:00,82.0,75.2,29.90,South,180,0.0,0.0,80,0.00,,---,0.24,VWS V13.01,2013-10-13 01:51:00,
2013-10-12 21:54:00,82.0,75.2,29.90,SE,135,0.0,0.0,80,0.00,,---,0.24,VWS V13.01,2013-10-13 01:54:00,
2013-10-12 21:56:00,81.8,75.0,29.90,SE,135,2.4,2.4,80,0.00,,---,0.24,VWS V13.01,2013-10-13 01:56:00,
2013-10-12 21:57:00,81.8,75.0,29.91,SSE,158,1.3,1.3,80,0.00,,---,0.24,VWS V13.01,2013-10-13 01:57:00,
2013-10-12 21:59:00,81.8,75.0,29.90,SSE,158,1.5,1.5,80,0.00,,---,0.24,VWS V13.01,2013-10-13 01:59:00,
2013-10-12 22:00:00,81.8,75.0,29.91,SSE,158,0.8,0.8,80,0.00,,---,0.24,VWS V13.01,2013-10-13 02:00:00,
2013-10-12 22:01:00,81.6,74.8,29.90,ESE,112,0.0,0.0,80,0.00,,---,0.24,VWS V13.01,2013-10-13 02:01:00,
2013-10-12 22:02:00,81.6,74.8,29.90,ESE,112,0.0,0.0,80,0.00,,---,0.24,VWS V13.01,2013-10-13 02:02:00,
2013-10-12 22:04:00,81.6,74.8,29.91,SSE,158,1.1,1.1,80,0.00,,---,0.24,VWS V13.01,2013-10-13 02:04:00,
2013-10-12 22:05:00,81.6,74.8,29.91,SSE,158,0.0,0.0,80,0.00,,---,0.24,VWS V13.01,2013-10-13 02:05:00,
2013-10-12 22:06:00,81.6,74.8,29.91,ESE,112,2.4,2.4,80,0.00,,---,0.24,VWS V13.01,2013-10-13 02:06:00,
2013-10-12 22:07:00,81.6,74.8,29.91,ESE,112,2.4,2.4,80,0.00,,---,0.24,VWS V13.01,2013-10-13 02:07:00,
2013-10-12 22:09:00,81.6,75.2,29.91,SSE,158,0.0,0.0,81,0.00,,---,0.24,VWS V13.01,2013-10-13 02:09:00,
2013-10-12 22:10:00,81.6,75.2,29.90,SE,135,0.0,0.0,81,0.00,,---,0.24,VWS V13.01,2013-10-13 02:10:00,
2013-10-12 22:11:00,81.6,75.2,29.90,SE,135,2.2,2.2,81,0.00,,---,0.24,VWS V13.01,2013-10-13 02:11:00,
2013-10-12 22:12:00,81.6,75.2,29.90,SE,135,2.2,2.2,81,0.00,,---,0.24,VWS V13.01,2013-10-13 02:12:00,
2013-10-12 22:14:00,81.6,75.2,29.91,SE,135,2.2,2.2,81,0.00,,---,0.24,VWS V13.01,2013-10-13 02:14:00,
2013-10-12 22:15:00,81.6,75.2,29.91,SE,135,1.3,1.3,81,0.00,,---,0.24,VWS V13.01,2013-10-13 02:15:00,
2013-10-12 22:16:00,81.6,75.2,29.91,SSE,158,1.5,1.5,81,0.00,,---,0.24,VWS V13.01,2013-10-13 02:16:00,
2013-10-12 22:17:00,81.6,75.2,29.91,SSE,158,1.5,1.5,81,0.00,,---,0.24,VWS V13.01,2013-10-13 02:17:00,
2013-10-12 22:18:00,81.6,75.2,29.91,SSE,158,0.0,0.0,81,0.00,,---,0.24,VWS V13.01,2013-10-13 02:18:00,
2013-10-12 22:19:00,81.6,75.2,29.90,SE,135,0.0,0.0,81,0.00,,---,0.24,VWS V13.01,2013-10-13 02:19:00,
2013-10-12 22:20:00,81.6,75.2,29.90,ESE,112,1.5,1.5,81,0.00,,---,0.24,VWS V13.01,2013-10-13 02:20:00,
2013-10-12 22:21:00,81.5,75.1,29.91,SSE,158,0.0,0.0,81,0.00,,---,0.24,VWS V13.01,2013-10-13 02:21:00,
2013-10-12 22:22:00,81.5,75.1,29.91,SSE,158,0.0,0.0,81,0.00,,---,0.24,VWS V13.01,2013-10-13 02:22:00,
2013-10-12 22:23:00,81.5,75.1,29.90,SE,135,2.4,2.4,81,0.00,,---,0.24,VWS V13.01,2013-10-13 02:23:00,
2013-10-12 22:24:00,81.5,75.1,29.91,ESE,112,2.4,2.4,81,0.00,,---,0.24,VWS V13.01,2013-10-13 02:24:00,
2013-10-12 22:25:00,81.5,75.1,29.91,ESE,112,2.4,2.4,81,0.00,,---,0.24,VWS V13.01,2013-10-13 02:25:00,
2013-10-12 22:26:00,81.5,75.1,29.90,SE,135,0.0,2.9,81,0.00,,---,0.24,VWS V13.01,2013-10-13 02:26:00,
2013-10-12 22:27:00,81.5,75.1,29.90,SE,135,0.0,0.0,81,0.00,,---,0.24,VWS V13.01,2013-10-13 02:27:00,
2013-10-12 22:28:00,81.5,75.1,29.90,SE,135,1.3,1.3,81,0.00,,---,0.24,VWS V13.01,2013-10-13 02:28:00,
2013-10-12 22:29:00,81.5,75.1,29.91,ESE,112,0.0,0.0,81,0.00,,---,0.24,VWS V13.01,2013-10-13 02:29:00,
2013-10-12 22:30:00,81.5,75.1,29.91,ESE,112,0.0,0.0,81,0.00,,---,0.24,VWS V13.01,2013-10-13 02:30:00,
2013-10-12 22:31:00,81.5,75.1,29.90,SE,135,0.0,0.0,81,0.00,,---,0.24,VWS V13.01,2013-10-13 02:31:00,
2013-10-12 22:33:00,81.3,74.9,29.91,SSE,158,0.0,0.0,81,0.00,,---,0.24,VWS V13.01,2013-10-13 02:33:00,
2013-10-12 22:34:00,81.3,74.9,29.90,South,180,0.0,0.0,81,0.00,,---,0.24,VWS V13.01,2013-10-13 02:34:00,
2013-10-12 22:35:00,81.3,74.9,29.90,South,180,0.0,0.0,81,0.00,,---,0.24,VWS V13.01,2013-10-13 02:35:00,
2013-10-12 22:36:00,81.3,74.9,29.90,SSE,158,0.0,0.0,81,0.00,,---,0.24,VWS V13.01,2013-10-13 02:36:00,
2013-10-12 22:38:00,81.3,74.9,29.90,SSE,158,0.0,0.0,81,0.00,,---,0.24,VWS V13.01,2013-10-13 02:38:00,
2013-10-12 22:39:00,81.3,74.9,29.90,South,180,0.8,0.8,81,0.00,,---,0.24,VWS V13.01,2013-10-13 02:39:00,
2013-10-12 22:40:00,81.3,74.9,29.90,SSE,158,0.0,0.0,81,0.00,,---,0.24,VWS V13.01,2013-10-13 02:40:00,
2013-10-12 22:41:00,81.3,74.9,29.90,SSE,158,0.0,0.0,81,0.00,,---,0.24,VWS V13.01,2013-10-13 02:41:00,
2013-10-12 22:43:00,81.3,74.9,29.90,SE,135,1.7,1.7,81,0.00,,---,0.24,VWS V13.01,2013-10-13 02:43:00,
2013-10-12 22:44:00,81.3,74.9,29.90,SSW,202,0.0,0.0,81,0.00,,---,0.24,VWS V13.01,2013-10-13 02:44:00,
2013-10-12 22:45:00,81.3,74.9,29.90,SSW,202,0.0,0.0,81,0.00,,---,0.24,VWS V13.01,2013-10-13 02:45:00,
2013-10-12 22:46:00,81.3,74.9,29.90,SSE,158,1.5,1.5,81,0.00,,---,0.24,VWS V13.01,2013-10-13 02:46:00,
2013-10-12 22:47:00,81.3,74.9,29.90,SSE,158,0.0,0.0,81,0.00,,---,0.24,VWS V13.01,2013-10-13 02:47:00,
2013-10-12 22:48:00,81.3,74.9,29.90,South,180,0.0,0.0,81,0.00,,---,0.24,VWS V13.01,2013-10-13 02:48:00,
2013-10-12 22:49:00,81.1,74.7,29.90,SSE,158,0.0,0.0,81,0.00,,---,0.24,VWS V13.01,2013-10-13 02:49:00,
2013-10-12 22:50:00,81.1,74.7,29.90,SSE,158,0.0,0.0,81,0.00,,---,0.24,VWS V13.01,2013-10-13 02:50:00,
2013-10-12 22:51:00,81.1,74.7,29.89,South,180,0.0,0.0,81,0.00,,---,0.24,VWS V13.01,2013-10-13 02:51:00,
2013-10-12 22:52:00,81.1,74.7,29.90,South,180,0.0,0.0,81,0.00,,---,0.24,VWS V13.01,2013-10-13 02:52:00,
2013-10-12 22:53:00,81.1,74.7,29.90,South,180,3.1,3.1,81,0.00,,---,0.24,VWS V13.01,2013-10-13 02:53:00,
2013-10-12 22:54:00,81.1,74.7,29.89,South,180,2.2,2.2,81,0.00,,---,0.24,VWS V13.01,2013-10-13 02:54:00,
2013-10-12 22:55:00,81.1,74.7,29.89,South,180,2.2,2.2,81,0.00,,---,0.24,VWS V13.01,2013-10-13 02:55:00,
2013-10-12 22:56:00,81.1,74.7,29.90,SSE,158,1.5,1.5,81,0.00,,---,0.24,VWS V13.01,2013-10-13 02:56:00,
2013-10-12 22:57:00,81.1,74.7,29.89,South,180,0.0,0.0,81,0.00,,---,0.24,VWS V13.01,2013-10-13 02:57:00,
2013-10-12 22:58:00,81.1,74.7,29.89,SSE,158,0.0,0.0,81,0.00,,---,0.24,VWS V13.01,2013-10-13 02:58:00,
2013-10-12 22:59:00,81.1,74.7,29.89,South,180,0.0,0.0,81,0.00,,---,0.24,VWS V13.01,2013-10-13 02:59:00,
2013-10-12 23:00:00,81.1,74.7,29.89,South,180,0.0,0.0,81,0.00,,---,0.24,VWS V13.01,2013-10-13 03:00:00,
2013-10-12 23:01:00,81.1,74.7,29.89,SSE,158,0.0,0.0,81,0.00,,---,0.24,VWS V13.01,2013-10-13 03:01:00,
2013-10-12 23:02:00,81.1,74.7,29.89,SSE,158,0.0,0.0,81,0.00,,---,0.24,VWS V13.01,2013-10-13 03:02:00,
2013-10-12 23:03:00,81.1,74.7,29.89,SSE,158,0.0,0.0,81,0.00,,---,0.24,VWS V13.01,2013-10-13 03:03:00,
2013-10-12 23:04:00,81.1,74.7,29.89,South,180,0.0,0.0,81,0.00,,---,0.24,VWS V13.01,2013-10-13 03:04:00,
2013-10-12 23:05:00,81.1,74.7,29.89,South,180,0.0,0.0,81,0.00,,---,0.24,VWS V13.01,2013-10-13 03:05:00,
2013-10-12 23:06:00,81.1,74.7,29.89,SSE,158,0.0,0.0,81,0.00,,---,0.24,VWS V13.01,2013-10-13 03:06:00,
2013-10-12 23:07:00,81.1,74.7,29.89,SE,135,0.0,0.0,81,0.00,,---,0.24,VWS V13.01,2013-10-13 03:07:00,
2013-10-12 23:08:00,81.1,74.7,29.89,SSE,158,0.0,0.0,81,0.00,,---,0.24,VWS V13.01,2013-10-13 03:08:00,
2013-10-12 23:09:00,81.1,74.7,29.89,South,180,0.0,0.0,81,0.00,,---,0.24,VWS V13.01,2013-10-13 03:09:00,
2013-10-12 23:10:00,81.1,74.7,29.89,South,180,0.0,0.0,81,0.00,,---,0.24,VWS V13.01,2013-10-13 03:10:00,
2013-10-12 23:11:00,81.1,74.7,29.89,South,180,3.1,3.1,81,0.00,,---,0.24,VWS V13.01,2013-10-13 03:11:00,
2013-10-12 23:12:00,80.9,74.5,29.89,SSE,158,2.9,2.9,81,0.00,,---,0.24,VWS V13.01,2013-10-13 03:12:00,
2013-10-12 23:13:00,80.9,74.5,29.89,SE,135,1.3,1.3,81,0.00,,---,0.24,VWS V13.01,2013-10-13 03:13:00,
2013-10-12 23:14:00,80.9,74.5,29.89,SSE,158,0.0,0.0,81,0.00,,---,0.24,VWS V13.01,2013-10-13 03:14:00,
2013-10-12 23:15:00,80.9,74.5,29.89,SE,135,1.3,1.3,81,0.00,,---,0.24,VWS V13.01,2013-10-13 03:15:00,
2013-10-12 23:16:00,80.9,74.5,29.89,SE,135,0.0,0.0,81,0.00,,---,0.24,VWS V13.01,2013-10-13 03:16:00,
2013-10-12 23:17:00,80.9,74.5,29.89,SE,135,1.5,1.5,81,0.00,,---,0.24,VWS V13.01,2013-10-13 03:17:00,
2013-10-12 23:18:00,80.9,74.5,29.89,SSE,158,1.5,1.5,81,0.00,,---,0.24,VWS V13.01,2013-10-13 03:18:00,
2013-10-12 23:19:00,80.9,74.5,29.89,ESE,112,1.5,1.5,81,0.00,,---,0.24,VWS V13.01,2013-10-13 03:19:00,
2013-10-12 23:20:00,80.9,74.5,29.89,SSE,158,0.0,0.0,81,0.00,,---,0.24,VWS V13.01,2013-10-13 03:20:00,
2013-10-12 23:21:00,80.9,74.5,29.89,SSE,158,2.0,2.0,81,0.00,,---,0.24,VWS V13.01,2013-10-13 03:21:00,
2013-10-12 23:22:00,80.9,74.5,29.89,SE,135,0.0,0.0,81,0.00,,---,0.24,VWS V13.01,2013-10-13 03:22:00,
2013-10-12 23:23:00,80.9,74.5,29.89,SSE,158,0.0,0.0,81,0.00,,---,0.24,VWS V13.01,2013-10-13 03:23:00,
2013-10-12 23:24:00,80.9,74.5,29.89,SSE,158,0.0,0.0,81,0.00,,---,0.24,VWS V13.01,2013-10-13 03:24:00,
2013-10-12 23:25:00,80.7,74.3,29.89,South,180,0.0,0.0,81,0.00,,---,0.24,VWS V13.01,2013-10-13 03:25:00,
2013-10-12 23:26:00,80.7,74.3,29.90,South,180,0.0,0.8,81,0.00,,---,0.24,VWS V13.01,2013-10-13 03:26:00,
2013-10-12 23:27:00,80.7,74.3,29.90,South,180,0.0,0.0,81,0.00,,---,0.24,VWS V13.01,2013-10-13 03:27:00,
2013-10-12 23:29:00,80.7,74.3,29.89,SE,135,0.0,0.0,81,0.00,,---,0.24,VWS V13.01,2013-10-13 03:29:00,
2013-10-12 23:30:00,80.7,74.3,29.90,SSE,158,0.0,0.0,81,0.00,,---,0.24,VWS V13.01,2013-10-13 03:30:00,
2013-10-12 23:32:00,80.7,74.3,29.89,SSE,158,0.0,0.0,81,0.00,,---,0.24,VWS V13.01,2013-10-13 03:32:00,
2013-10-12 23:34:00,80.7,74.3,29.90,SSE,158,0.0,0.0,81,0.00,,---,0.24,VWS V13.01,2013-10-13 03:34:00,
2013-10-12 23:35:00,80.7,74.3,29.90,SSE,158,0.0,0.0,81,0.00,,---,0.24,VWS V13.01,2013-10-13 03:35:00,
2013-10-12 23:37:00,80.7,74.3,29.89,SE,135,0.0,0.0,81,0.00,,---,0.24,VWS V13.01,2013-10-13 03:37:00,
2013-10-12 23:39:00,80.7,74.3,29.89,South,180,0.0,0.0,81,0.00,,---,0.24,VWS V13.01,2013-10-13 03:39:00,
2013-10-12 23:40:00,80.7,74.3,29.89,SSE,158,0.0,0.0,81,0.00,,---,0.24,VWS V13.01,2013-10-13 03:40:00,
2013-10-12 23:42:00,80.7,74.3,29.89,SSE,158,0.0,0.0,81,0.00,,---,0.24,VWS V13.01,2013-10-13 03:42:00,
2013-10-12 23:44:00,80.6,74.2,29.89,SSE,158,0.0,0.0,81,0.00,,---,0.24,VWS V13.01,2013-10-13 03:44:00,
2013-10-12 23:45:00,80.7,74.3,29.89,South,180,0.0,0.0,81,0.00,,---,0.24,VWS V13.01,2013-10-13 03:45:00,
2013-10-12 23:47:00,80.7,74.3,29.89,SSE,158,0.0,0.0,81,0.00,,---,0.24,VWS V13.01,2013-10-13 03:47:00,
2013-10-12 23:49:00,80.6,74.2,29.90,ESE,112,0.0,0.0,81,0.00,,---,0.24,VWS V13.01,2013-10-13 03:49:00,
2013-10-12 23:50:00,80.6,74.2,29.90,SSE,158,2.2,2.2,81,0.00,,---,0.24,VWS V13.01,2013-10-13 03:50:00,
2013-10-12 23:52:00,80.6,74.2,29.90,South,180,0.0,0.0,81,0.00,,---,0.24,VWS V13.01,2013-10-13 03:52:00,
2013-10-12 23:54:00,80.6,74.2,29.90,SSE,158,0.0,0.0,81,0.00,,---,0.24,VWS V13.01,2013-10-13 03:54:00,
2013-10-12 23:55:00,80.6,74.2,29.90,South,180,0.0,0.0,81,0.00,,---,0.24,VWS V13.01,2013-10-13 03:55:00,
2013-10-12 23:57:00,80.6,74.2,29.90,SSE,158,1.3,1.3,81,0.00,,---,0.00,VWS V13.01,2013-10-13 03:57:00,
2013-10-12 23:59:00,80.6,74.2,29.90,SE,135,1.3,1.3,81,0.00,,---,0.00,VWS V13.01,2013-10-13 03:59:00,